CSN45 EGLL-ZBAD

Flight info

Callsign CSN45
Flight time 8h 56m
Altitude 37000
Route BPK DCT 5147N00012E 5147N00015E 5149N00039E 5152N00051E 5218N00239E 5223N00307E 5224N00310E DCT 5449N00958E 5710N01956E 5741N02159E 5753N02247E/N0487F390 5811N02412E 5844N02709E 5848N02723E/K0902F390 5909N02849E 5941N03110E 5947N03201E 5949N03220E 5956N03311E 5957N03519E 6007N03644E 6015N03813E 6029N04059E 6034N04207E 6040N04349E 6043N04506E 6044N04527E 6046N04619E 6047N04638E 6047N04650E 6048N04719E 6049N04823E 6049N04954E 6049N05117E 6047N05337E 6043N05542E 6038N05728E 6018N06206E 6012N06308E 6008N06355E 6007N06450E 6002N06639E 5955N06821E 5949N06936E 5905N07401E 5835N07631E 5744N07943E 5700N08204E 5557N08534E/K0900F410 5547N08603E 5510N08748E 5449N08844E 5345N09123E 5251N09342E 5100N09752E/K0893S1250 5011N09953E 5000N10018E 4912N10206E 4835N10321E 4748N10460E 4733N10529E 4650N10650E 4642N10704E 4545N10844E 4454N11008E 4341N11154E 4332N11202E 4325N11208E 4258N11225E 4151N11309E/K0911S1220 4055N11306E 4029N11305E 4021N11305E/K0907S1250 4020N11313E 4017N11405E DCT ELAPU ELAPU6M
Aircraft A359/H-SDE2E3GHIJ3J4J5LM1ORWXY/LB1D1

Departure

Time 2026-05-06 23:06
Airport London Heathrow Airport (EGLL)

Arrival

Time 2026-05-07 08:02
Airport Beijing Daxing International Airport (ZBAD)
Time Latitude Longitude Altitude Speed Heading
2026-05-06 22:56 51.46065 -0.45007 94 ft 0 kts 221°
2026-05-06 22:57 51.46065 -0.45008 94 ft 0 kts 221°
2026-05-06 22:57 51.46003 -0.45096 95 ft 14 kts 225°
2026-05-06 22:57 51.45993 -0.45216 96 ft 3 kts 300°
2026-05-06 22:58 51.45993 -0.45217 96 ft 1 kts 300°
2026-05-06 22:59 51.46047 -0.45305 95 ft 13 kts 330°
2026-05-06 22:59 51.46127 -0.45387 97 ft 14 kts 326°
2026-05-06 22:59 51.46211 -0.45478 97 ft 17 kts 326°
2026-05-06 23:00 51.46310 -0.45612 95 ft 20 kts 295°
2026-05-06 23:00 51.46323 -0.45842 94 ft 23 kts 270°
2026-05-06 23:00 51.46321 -0.46149 97 ft 31 kts 269°
2026-05-06 23:00 51.46321 -0.46517 96 ft 33 kts 270°
2026-05-06 23:01 51.46322 -0.46889 93 ft 35 kts 270°
2026-05-06 23:01 51.46320 -0.47223 96 ft 28 kts 269°
2026-05-06 23:01 51.46338 -0.47480 95 ft 21 kts 272°
2026-05-06 23:01 51.46310 -0.47706 96 ft 21 kts 242°
2026-05-06 23:02 51.46252 -0.47926 95 ft 21 kts 264°
2026-05-06 23:02 51.46249 -0.48213 91 ft 32 kts 269°
2026-05-06 23:02 51.46249 -0.48529 92 ft 13 kts 273°
2026-05-06 23:02 51.46282 -0.48672 96 ft 15 kts 308°
2026-05-06 23:03 51.46292 -0.48688 96 ft 0 kts 316°
2026-05-06 23:03 51.46305 -0.48705 94 ft 16 kts 321°
2026-05-06 23:03 51.46455 -0.48730 98 ft 22 kts 35°
2026-05-06 23:04 51.46475 -0.48653 99 ft 0 kts 85°
2026-05-06 23:05 51.46480 -0.48341 95 ft 66 kts 90°
2026-05-06 23:05 51.46482 -0.47194 93 ft 136 kts 90°
2026-05-06 23:06 51.46484 -0.45390 390 ft 169 kts 87°
2026-05-06 23:06 51.46525 -0.43595 1391 ft 159 kts 84°
2026-05-06 23:06 51.46653 -0.41845 2142 ft 154 kts 71°
2026-05-06 23:06 51.47282 -0.40514 2770 ft 153 kts 41°
2026-05-06 23:07 51.48034 -0.39400 3435 ft 145 kts 43°
2026-05-06 23:07 51.48749 -0.38275 4081 ft 145 kts 45°
2026-05-06 23:07 51.49483 -0.36985 4416 ft 169 kts 48°
2026-05-06 23:07 51.50312 -0.35449 4747 ft 193 kts 48°
2026-05-06 23:08 51.51206 -0.33730 5273 ft 205 kts 50°
2026-05-06 23:08 51.51928 -0.31693 5803 ft 222 kts 65°
2026-05-06 23:08 51.52495 -0.29226 5976 ft 249 kts 69°
2026-05-06 23:08 51.53067 -0.26496 5995 ft 263 kts 70°
2026-05-06 23:09 51.53688 -0.23719 5989 ft 265 kts 65°
2026-05-06 23:09 51.54744 -0.21332 6106 ft 264 kts 39°
2026-05-06 23:09 51.56336 -0.19873 6688 ft 265 kts 21°
2026-05-06 23:09 51.58058 -0.18740 7703 ft 267 kts 21°
2026-05-06 23:10 51.59742 -0.17763 8736 ft 268 kts 16°
2026-05-06 23:10 51.61543 -0.16914 9783 ft 271 kts 14°
2026-05-06 23:10 51.63383 -0.16073 10591 ft 282 kts 14°
2026-05-06 23:10 51.65358 -0.15167 11034 ft 306 kts 14°
2026-05-06 23:11 51.67460 -0.14200 11446 ft 329 kts 14°
2026-05-06 23:11 51.69706 -0.13074 12020 ft 345 kts 19°
2026-05-06 23:11 51.71888 -0.11321 12779 ft 356 kts 31°
2026-05-06 23:11 51.73801 -0.08709 13576 ft 367 kts 46°
2026-05-06 23:12 51.74839 -0.06540 14074 ft 373 kts 56°
2026-05-06 23:12 51.76225 -0.01362 15065 ft 383 kts 73°
2026-05-06 23:12 51.76873 0.02848 15817 ft 388 kts 77°
2026-05-06 23:12 51.77234 0.05687 16317 ft 391 kts 78°
2026-05-06 23:13 51.77734 0.10037 17124 ft 395 kts 79°
2026-05-06 23:13 51.78222 0.14434 17930 ft 400 kts 79°
2026-05-06 23:13 51.78727 0.18902 18727 ft 403 kts 79°
2026-05-06 23:13 51.79249 0.23380 19445 ft 408 kts 79°
2026-05-06 23:14 51.79785 0.27850 20166 ft 412 kts 78°
2026-05-06 23:14 51.80346 0.32449 20896 ft 417 kts 78°
2026-05-06 23:14 51.80914 0.37081 21611 ft 422 kts 78°
2026-05-06 23:14 51.81488 0.41766 22333 ft 426 kts 78°
2026-05-06 23:15 51.82061 0.46453 23051 ft 430 kts 78°
2026-05-06 23:15 51.82642 0.51227 23739 ft 435 kts 78°
2026-05-06 23:15 51.83226 0.56058 24333 ft 439 kts 79°
2026-05-06 23:15 51.83814 0.60943 24935 ft 443 kts 79°
2026-05-06 23:16 51.84402 0.65849 25532 ft 446 kts 79°
2026-05-06 23:16 51.84987 0.70745 26114 ft 450 kts 79°
2026-05-06 23:16 51.85581 0.75748 26715 ft 454 kts 79°
2026-05-06 23:16 51.86179 0.80786 27312 ft 457 kts 80°
2026-05-06 23:17 51.86987 0.85790 27900 ft 461 kts 71°
2026-05-06 23:17 51.88077 0.90646 28471 ft 465 kts 70°
2026-05-06 23:17 51.89263 0.95569 29043 ft 469 kts 69°
2026-05-06 23:17 51.90490 1.00493 29563 ft 473 kts 69°
2026-05-06 23:18 51.91726 1.05398 30064 ft 477 kts 69°
2026-05-06 23:18 51.92987 1.10406 30502 ft 480 kts 69°
2026-05-06 23:18 51.94246 1.15434 30932 ft 484 kts 69°
2026-05-06 23:18 51.95511 1.20520 31349 ft 487 kts 69°
2026-05-06 23:19 51.96776 1.25635 31742 ft 490 kts 69°
2026-05-06 23:19 51.98044 1.30790 32133 ft 493 kts 70°
2026-05-06 23:19 51.99316 1.35975 32520 ft 495 kts 70°
2026-05-06 23:19 52.00575 1.41124 32862 ft 498 kts 70°
2026-05-06 23:20 52.01855 1.46368 33224 ft 501 kts 70°
2026-05-06 23:20 52.03132 1.51612 33722 ft 499 kts 70°
2026-05-06 23:20 52.04410 1.56869 34237 ft 498 kts 70°
2026-05-06 23:20 52.05685 1.62125 34620 ft 497 kts 70°
2026-05-06 23:21 52.06951 1.67358 34985 ft 498 kts 70°
2026-05-06 23:21 52.08203 1.72543 35335 ft 498 kts 70°
2026-05-06 23:21 52.09467 1.77793 35704 ft 498 kts 70°
2026-05-06 23:21 52.10729 1.83050 36043 ft 498 kts 70°
2026-05-06 23:22 52.11989 1.88313 36358 ft 499 kts 70°
2026-05-06 23:22 52.13249 1.93584 36704 ft 499 kts 70°
2026-05-06 23:22 52.14506 1.98860 37043 ft 500 kts 70°
2026-05-06 23:22 52.15762 2.04141 37367 ft 500 kts 69°
2026-05-06 23:23 52.17015 2.09424 37691 ft 500 kts 69°
2026-05-06 23:23 52.18266 2.14707 38012 ft 500 kts 69°
2026-05-06 23:23 52.19516 2.20006 38324 ft 501 kts 69°
2026-05-06 23:23 52.20750 2.25244 38619 ft 501 kts 69°
2026-05-06 23:24 52.22002 2.30577 38857 ft 501 kts 69°
2026-05-06 23:24 52.23253 2.35916 39082 ft 502 kts 69°
2026-05-06 23:24 52.24485 2.41187 39299 ft 502 kts 69°
2026-05-06 23:24 52.25729 2.46521 39515 ft 503 kts 70°
2026-05-06 23:25 52.26974 2.51875 39730 ft 503 kts 70°
2026-05-06 23:25 52.28215 2.57224 39942 ft 503 kts 70°
2026-05-06 23:25 52.29453 2.62576 40020 ft 504 kts 70°
2026-05-06 23:26 52.31824 2.73394 40027 ft 504 kts 72°
2026-05-06 23:26 52.33879 2.84294 40028 ft 504 kts 73°
2026-05-06 23:27 52.35927 2.95284 40026 ft 504 kts 73°
2026-05-06 23:27 52.38016 3.06266 40024 ft 504 kts 73°
2026-05-06 23:28 52.40412 3.16975 40016 ft 505 kts 63°
2026-05-06 23:28 52.44063 3.26828 40015 ft 506 kts 57°
2026-05-06 23:29 52.47940 3.36422 40016 ft 506 kts 56°
2026-05-06 23:29 52.51863 3.46073 40016 ft 506 kts 56°
2026-05-06 23:30 52.55753 3.55740 40020 ft 506 kts 57°
2026-05-06 23:30 52.59593 3.65361 40021 ft 507 kts 57°
2026-05-06 23:31 52.63459 3.75093 40019 ft 507 kts 57°
2026-05-06 23:31 52.67315 3.84839 40021 ft 507 kts 57°
2026-05-06 23:32 52.71142 3.94544 40021 ft 507 kts 57°
2026-05-06 23:32 52.74989 4.04337 40023 ft 507 kts 57°
2026-05-06 23:33 52.78818 4.14122 40021 ft 507 kts 57°
2026-05-06 23:33 52.82629 4.23897 40020 ft 507 kts 57°
2026-05-06 23:34 52.86448 4.33732 40021 ft 507 kts 57°
2026-05-06 23:34 52.90249 4.43558 40006 ft 508 kts 57°
2026-05-06 23:35 52.94055 4.53437 40010 ft 508 kts 57°
2026-05-06 23:35 52.97833 4.63280 40017 ft 508 kts 57°
2026-05-06 23:36 53.01633 4.73222 40028 ft 508 kts 57°
2026-05-06 23:36 53.05391 4.83090 40027 ft 509 kts 58°
2026-05-06 23:37 53.09174 4.93063 40024 ft 509 kts 58°
2026-05-06 23:37 53.12955 5.03072 40009 ft 509 kts 58°
2026-05-06 23:38 53.16708 5.13046 40037 ft 510 kts 57°
2026-05-06 23:38 53.20448 5.23027 39999 ft 509 kts 57°
2026-05-06 23:39 53.24199 5.33074 39998 ft 509 kts 58°
2026-05-06 23:39 53.27945 5.43146 39997 ft 510 kts 58°
2026-05-06 23:40 53.31662 5.53185 39995 ft 510 kts 58°
2026-05-06 23:40 53.35390 5.63292 39996 ft 510 kts 58°
2026-05-06 23:41 53.39128 5.73467 39994 ft 511 kts 58°
2026-05-06 23:41 53.42819 5.83556 39996 ft 511 kts 58°
2026-05-06 23:42 53.46524 5.93723 39995 ft 511 kts 58°
2026-05-06 23:42 53.50232 6.03942 39993 ft 511 kts 58°
2026-05-06 23:43 53.53915 6.14133 39993 ft 511 kts 58°
2026-05-06 23:43 53.57604 6.24382 39993 ft 512 kts 58°
2026-05-06 23:44 53.61289 6.34660 39990 ft 512 kts 58°
2026-05-06 23:44 53.64953 6.44925 39990 ft 512 kts 59°
2026-05-06 23:45 53.68603 6.55192 39989 ft 512 kts 59°
2026-05-06 23:45 53.72273 6.65559 39987 ft 513 kts 59°
2026-05-06 23:46 53.75909 6.75873 39988 ft 513 kts 59°
2026-05-06 23:46 53.79560 6.86273 39988 ft 513 kts 59°
2026-05-06 23:47 53.83182 6.96633 39987 ft 514 kts 59°
2026-05-06 23:47 53.86826 7.07100 39985 ft 514 kts 59°
2026-05-06 23:48 53.90453 7.17563 39987 ft 514 kts 59°
2026-05-06 23:48 53.94047 7.27976 39982 ft 514 kts 59°
2026-05-06 23:49 53.97664 7.38497 39981 ft 515 kts 59°
2026-05-06 23:49 54.01242 7.48950 39980 ft 515 kts 60°
2026-05-06 23:50 54.04840 7.59508 39979 ft 515 kts 60°
2026-05-06 23:50 54.10228 7.75403 39980 ft 515 kts 60°
2026-05-06 23:51 54.13785 7.85955 39979 ft 516 kts 60°
2026-05-06 23:51 54.17342 7.96549 39980 ft 516 kts 60°
2026-05-06 23:52 54.20905 8.07211 39977 ft 516 kts 60°
2026-05-06 23:52 54.24440 8.17831 39973 ft 516 kts 60°
2026-05-06 23:53 54.27981 8.28519 39971 ft 516 kts 60°
2026-05-06 23:53 54.31518 8.39242 39968 ft 517 kts 60°
2026-05-06 23:54 54.35053 8.50005 39968 ft 517 kts 60°
2026-05-06 23:54 54.38570 8.60762 39974 ft 517 kts 61°
2026-05-06 23:55 54.42060 8.71484 39971 ft 517 kts 61°
2026-05-06 23:55 54.45562 8.82288 39971 ft 517 kts 61°
2026-05-06 23:56 54.49064 8.93142 39976 ft 518 kts 61°
2026-05-06 23:56 54.52533 9.03943 39973 ft 518 kts 61°
2026-05-06 23:57 54.56018 9.14842 39972 ft 518 kts 61°
2026-05-06 23:57 54.58903 9.23901 39971 ft 518 kts 62°
2026-05-06 23:58 54.62928 9.36598 39971 ft 519 kts 62°
2026-05-06 23:58 54.65804 9.45712 39974 ft 519 kts 62°
2026-05-06 23:59 54.69255 9.56693 39975 ft 519 kts 62°
2026-05-06 23:59 54.72701 9.67710 39985 ft 519 kts 62°
2026-05-07 00:00 54.76117 9.78683 39988 ft 520 kts 62°
2026-05-07 00:00 54.79544 9.89738 39993 ft 520 kts 62°
2026-05-07 00:01 54.82932 10.00749 39993 ft 520 kts 63°
2026-05-07 00:01 54.86207 10.11949 39993 ft 520 kts 64°
2026-05-07 00:02 54.89414 10.23146 39992 ft 520 kts 64°
2026-05-07 00:02 54.92658 10.34449 39997 ft 520 kts 64°
2026-05-07 00:03 54.95888 10.45696 39995 ft 521 kts 64°
2026-05-07 00:03 54.99102 10.56925 40002 ft 521 kts 64°
2026-05-07 00:04 55.02326 10.68246 40002 ft 521 kts 64°
2026-05-07 00:04 55.05543 10.79600 40000 ft 521 kts 64°
2026-05-07 00:05 55.08747 10.90966 40002 ft 521 kts 64°
2026-05-07 00:05 55.11921 11.02280 40002 ft 521 kts 64°
2026-05-07 00:06 55.15109 11.13700 40002 ft 521 kts 64°
2026-05-07 00:06 55.18260 11.25043 40002 ft 522 kts 65°
2026-05-07 00:07 55.21424 11.36489 40004 ft 522 kts 65°
2026-05-07 00:07 55.24584 11.47976 40006 ft 522 kts 65°
2026-05-07 00:08 55.27712 11.59408 40002 ft 522 kts 65°
2026-05-07 00:08 55.30846 11.70918 40006 ft 522 kts 65°
2026-05-07 00:09 55.33977 11.82471 40008 ft 522 kts 65°
2026-05-07 00:09 55.37078 11.93978 40014 ft 523 kts 65°
2026-05-07 00:10 55.40185 12.05562 40017 ft 523 kts 65°
2026-05-07 00:10 55.43258 12.17079 40019 ft 523 kts 65°
2026-05-07 00:11 55.46344 12.28700 40019 ft 523 kts 65°
2026-05-07 00:11 55.49408 12.40300 40017 ft 523 kts 66°
2026-05-07 00:12 55.52476 12.51977 40019 ft 524 kts 66°
2026-05-07 00:12 55.55532 12.63669 40021 ft 524 kts 66°
2026-05-07 00:13 55.58582 12.75398 40022 ft 524 kts 66°
2026-05-07 00:13 55.61607 12.87090 40019 ft 524 kts 66°
2026-05-07 00:14 55.64636 12.98858 40019 ft 524 kts 66°
2026-05-07 00:14 55.67637 13.10584 40004 ft 525 kts 66°
2026-05-07 00:15 55.70642 13.22382 40002 ft 525 kts 66°
2026-05-07 00:15 55.73638 13.34211 40003 ft 525 kts 66°
2026-05-07 00:16 55.76603 13.45980 40005 ft 525 kts 66°
2026-05-07 00:16 55.79582 13.57867 40011 ft 525 kts 67°
2026-05-07 00:17 55.82552 13.69783 40017 ft 525 kts 67°
2026-05-07 00:17 55.85483 13.81606 40017 ft 526 kts 67°
2026-05-07 00:18 55.88431 13.93561 40022 ft 526 kts 67°
2026-05-07 00:18 55.91350 14.05465 40020 ft 526 kts 67°
2026-05-07 00:19 55.94269 14.17430 40020 ft 526 kts 67°
2026-05-07 00:19 55.97186 14.29457 40017 ft 526 kts 67°
2026-05-07 00:20 56.00072 14.41421 40015 ft 526 kts 68°
2026-05-07 00:20 56.02961 14.53464 40009 ft 526 kts 68°
2026-05-07 00:21 56.05821 14.65452 40005 ft 527 kts 68°
2026-05-07 00:21 56.08684 14.77520 39998 ft 527 kts 68°
2026-05-07 00:22 56.11547 14.89653 39999 ft 527 kts 68°
2026-05-07 00:22 56.14385 15.01751 39997 ft 527 kts 68°
2026-05-07 00:23 56.17201 15.13825 39993 ft 527 kts 68°
2026-05-07 00:23 56.20024 15.25992 39994 ft 527 kts 68°
2026-05-07 00:24 56.22836 15.38184 39995 ft 527 kts 68°
2026-05-07 00:24 56.25620 15.50324 39995 ft 527 kts 68°
2026-05-07 00:25 56.28410 15.62564 39996 ft 527 kts 69°
2026-05-07 00:25 56.31172 15.74747 40000 ft 527 kts 69°
2026-05-07 00:26 56.33934 15.87003 40003 ft 528 kts 69°
2026-05-07 00:26 56.36689 15.99298 40003 ft 528 kts 69°
2026-05-07 00:27 56.39430 16.11603 40006 ft 528 kts 69°
2026-05-07 00:27 56.42141 16.23845 40009 ft 528 kts 69°
2026-05-07 00:28 56.44863 16.36213 40010 ft 528 kts 69°
2026-05-07 00:28 56.47568 16.48573 40010 ft 528 kts 69°
2026-05-07 00:29 56.50253 16.60914 40009 ft 528 kts 69°
2026-05-07 00:30 56.55594 16.85691 39997 ft 533 kts 70°
2026-05-07 00:30 56.58290 16.98312 40004 ft 535 kts 70°
2026-05-07 00:31 56.60974 17.10949 39997 ft 537 kts 70°
2026-05-07 00:31 56.63652 17.23642 40001 ft 538 kts 70°
2026-05-07 00:32 56.66323 17.36379 40001 ft 539 kts 70°
2026-05-07 00:32 56.68985 17.49156 39999 ft 540 kts 70°
2026-05-07 00:33 56.71624 17.61904 39996 ft 541 kts 70°
2026-05-07 00:33 56.74267 17.74749 39996 ft 541 kts 70°
2026-05-07 00:34 56.76879 17.87530 39995 ft 541 kts 70°
2026-05-07 00:34 56.79500 18.00431 39991 ft 542 kts 70°
2026-05-07 00:35 56.82104 18.13338 39991 ft 542 kts 71°
2026-05-07 00:35 56.84638 18.25978 39991 ft 542 kts 71°
2026-05-07 00:36 56.87232 18.38998 39990 ft 542 kts 71°
2026-05-07 00:36 56.89799 18.51972 39989 ft 543 kts 71°
2026-05-07 00:37 56.92345 18.64922 39991 ft 543 kts 71°
2026-05-07 00:37 56.94880 18.77904 39989 ft 543 kts 71°
2026-05-07 00:38 56.97418 18.90990 39990 ft 543 kts 71°
2026-05-07 00:38 56.99936 19.04060 39988 ft 543 kts 71°
2026-05-07 00:39 57.02442 19.17156 39987 ft 543 kts 71°
2026-05-07 00:39 57.04919 19.30190 39988 ft 543 kts 71°
2026-05-07 00:40 57.07399 19.43326 39989 ft 543 kts 72°
2026-05-07 00:40 57.09869 19.56502 39985 ft 544 kts 72°
2026-05-07 00:41 57.12319 19.69660 39983 ft 544 kts 72°
2026-05-07 00:41 57.14742 19.82765 39983 ft 544 kts 72°
2026-05-07 00:42 57.17394 19.95806 39989 ft 544 kts 65°
2026-05-07 00:42 57.20625 20.08454 39981 ft 544 kts 64°
2026-05-07 00:43 57.23924 20.21035 39983 ft 544 kts 64°
2026-05-07 00:43 57.27200 20.33572 39983 ft 545 kts 64°
2026-05-07 00:44 57.30482 20.46243 39984 ft 545 kts 65°
2026-05-07 00:44 57.33721 20.58850 39986 ft 545 kts 65°
2026-05-07 00:45 57.36967 20.71558 39985 ft 545 kts 65°
2026-05-07 00:45 57.40186 20.84232 39985 ft 545 kts 65°
2026-05-07 00:46 57.42868 20.94848 39982 ft 545 kts 65°
2026-05-07 00:46 57.46073 21.07597 39974 ft 538 kts 65°
2026-05-07 00:47 57.48137 21.15848 39973 ft 527 kts 65°
2026-05-07 00:47 57.49181 21.20029 39974 ft 524 kts 65°
2026-05-07 00:47 57.52217 21.32248 39972 ft 522 kts 65°
2026-05-07 00:48 57.55261 21.44565 39975 ft 522 kts 65°
2026-05-07 00:48 57.58282 21.56858 39976 ft 520 kts 66°
2026-05-07 00:49 57.61263 21.69056 39979 ft 519 kts 66°
2026-05-07 00:49 57.64250 21.81346 39984 ft 519 kts 66°
2026-05-07 00:50 57.67204 21.93569 39988 ft 519 kts 66°
2026-05-07 00:50 57.70207 22.05897 39990 ft 519 kts 65°
2026-05-07 00:51 57.73315 22.18110 39989 ft 520 kts 65°
2026-05-07 00:51 57.76414 22.30284 39989 ft 519 kts 65°
2026-05-07 00:52 57.79497 22.42552 39989 ft 519 kts 65°
2026-05-07 00:52 57.82553 22.54830 39989 ft 520 kts 65°
2026-05-07 00:53 57.85600 22.67152 39991 ft 520 kts 65°
2026-05-07 00:53 57.88616 22.79412 39990 ft 520 kts 65°
2026-05-07 00:54 57.91461 22.91929 39987 ft 520 kts 69°
2026-05-07 00:54 57.94117 23.04531 39987 ft 520 kts 69°
2026-05-07 00:55 57.96794 23.17196 39988 ft 520 kts 69°
2026-05-07 00:55 57.99500 23.29875 39987 ft 520 kts 69°
2026-05-07 00:56 58.02184 23.42459 39986 ft 520 kts 69°
2026-05-07 00:56 58.04876 23.55157 39991 ft 520 kts 69°
2026-05-07 00:57 58.07554 23.67876 39992 ft 520 kts 69°
2026-05-07 00:57 58.10202 23.80535 39992 ft 521 kts 69°
2026-05-07 00:58 58.12858 23.93313 39992 ft 521 kts 69°
2026-05-07 00:58 58.15482 24.06018 39994 ft 522 kts 69°
2026-05-07 00:59 58.19446 24.25319 39997 ft 527 kts 69°
2026-05-07 01:00 58.22156 24.38314 39995 ft 531 kts 69°
2026-05-07 01:00 58.24885 24.51427 39995 ft 534 kts 69°
2026-05-07 01:01 58.27588 24.64534 39996 ft 538 kts 69°
2026-05-07 01:01 58.30310 24.77846 39997 ft 541 kts 69°
2026-05-07 01:02 58.33032 24.91247 39997 ft 543 kts 69°
2026-05-07 01:02 58.35731 25.04628 40001 ft 545 kts 70°
2026-05-07 01:03 58.38448 25.18185 40001 ft 546 kts 70°
2026-05-07 01:03 58.41131 25.31666 39999 ft 547 kts 70°
2026-05-07 01:04 58.43818 25.45255 40006 ft 547 kts 70°
2026-05-07 01:04 58.46485 25.58841 40011 ft 548 kts 70°
2026-05-07 01:05 58.49151 25.72518 40008 ft 548 kts 70°
2026-05-07 01:05 58.51803 25.86214 40006 ft 548 kts 70°
2026-05-07 01:06 58.54427 25.99864 40008 ft 548 kts 70°
2026-05-07 01:06 58.57050 26.13602 40010 ft 549 kts 70°
2026-05-07 01:07 58.59661 26.27380 40009 ft 549 kts 71°
2026-05-07 01:07 58.62240 26.41081 40009 ft 549 kts 71°
2026-05-07 01:08 58.64828 26.54934 40008 ft 549 kts 71°
2026-05-07 01:08 58.67385 26.68720 40012 ft 549 kts 71°
2026-05-07 01:09 58.69926 26.82515 40017 ft 550 kts 71°
2026-05-07 01:09 58.72470 26.96432 40013 ft 550 kts 71°
2026-05-07 01:10 58.74996 27.10351 40015 ft 550 kts 71°
2026-05-07 01:10 58.77497 27.24229 40015 ft 550 kts 71°
2026-05-07 01:11 58.80076 27.38103 40018 ft 550 kts 66°
2026-05-07 01:11 58.83299 27.51500 40020 ft 550 kts 64°
2026-05-07 01:12 58.86607 27.64727 40020 ft 550 kts 64°
2026-05-07 01:12 58.89942 27.78061 40027 ft 550 kts 64°
2026-05-07 01:13 58.93253 27.91427 40025 ft 550 kts 64°
2026-05-07 01:13 58.96525 28.04750 40026 ft 550 kts 65°
2026-05-07 01:14 58.99800 28.18178 40025 ft 550 kts 65°
2026-05-07 01:14 59.03063 28.31635 40030 ft 550 kts 65°
2026-05-07 01:15 59.06287 28.45012 40033 ft 550 kts 65°
2026-05-07 01:15 59.09537 28.58579 40031 ft 550 kts 65°
2026-05-07 01:16 59.12738 28.72028 40033 ft 551 kts 65°
2026-05-07 01:16 59.15954 28.85619 40039 ft 551 kts 65°
2026-05-07 01:17 59.19163 28.99107 40040 ft 551 kts 65°
2026-05-07 01:17 59.22400 29.12712 40040 ft 551 kts 65°
2026-05-07 01:18 59.25593 29.26244 40041 ft 551 kts 65°
2026-05-07 01:18 59.28795 29.39922 40042 ft 551 kts 65°
2026-05-07 01:19 59.31977 29.53607 40041 ft 551 kts 65°
2026-05-07 01:19 59.35126 29.67239 40039 ft 551 kts 66°
2026-05-07 01:20 59.38268 29.80927 40040 ft 552 kts 66°
2026-05-07 01:20 59.41415 29.94725 40040 ft 552 kts 66°
2026-05-07 01:21 59.44520 30.08420 40039 ft 552 kts 66°
2026-05-07 01:21 59.47641 30.22282 40042 ft 552 kts 66°
2026-05-07 01:22 59.50720 30.36049 40040 ft 552 kts 66°
2026-05-07 01:22 59.53805 30.49932 40043 ft 552 kts 66°
2026-05-07 01:23 59.56856 30.63752 40041 ft 552 kts 66°
2026-05-07 01:23 59.59913 30.77690 40040 ft 552 kts 66°
2026-05-07 01:24 59.62953 30.91642 40042 ft 552 kts 67°
2026-05-07 01:24 59.65962 31.05546 40046 ft 552 kts 67°
2026-05-07 01:25 59.68654 31.19810 40053 ft 551 kts 76°
2026-05-07 01:25 59.70514 31.34541 40049 ft 551 kts 78°
2026-05-07 01:26 59.72227 31.49300 40050 ft 552 kts 78°
2026-05-07 01:26 59.73924 31.64163 40051 ft 552 kts 78°
2026-05-07 01:27 59.75611 31.78966 40054 ft 552 kts 78°
2026-05-07 01:27 59.77298 31.93852 40054 ft 552 kts 78°
2026-05-07 01:28 59.78968 32.08742 40059 ft 552 kts 78°
2026-05-07 01:28 59.80608 32.23531 40059 ft 551 kts 78°
2026-05-07 01:29 59.82263 32.38415 40062 ft 552 kts 77°
2026-05-07 01:29 59.84292 32.53153 40061 ft 552 kts 74°
2026-05-07 01:30 59.86440 32.67837 40061 ft 552 kts 75°
2026-05-07 01:30 59.88511 32.82506 40064 ft 552 kts 75°
2026-05-07 01:31 59.90530 32.97287 40068 ft 552 kts 75°
2026-05-07 01:31 59.92506 33.12026 40063 ft 552 kts 76°
2026-05-07 01:32 59.93487 33.27164 40068 ft 549 kts 89°
2026-05-07 01:32 59.93771 33.42315 40065 ft 549 kts 90°
2026-05-07 01:33 59.93942 33.57585 40066 ft 549 kts 90°
2026-05-07 01:33 59.94103 33.72737 40069 ft 549 kts 90°
2026-05-07 01:34 59.94240 33.85412 40064 ft 549 kts 90°
2026-05-07 01:34 59.94420 34.03145 40066 ft 549 kts 90°
2026-05-07 01:35 59.94536 34.15847 40070 ft 549 kts 90°
2026-05-07 01:35 59.94676 34.33591 40070 ft 549 kts 91°
2026-05-07 01:36 59.94761 34.46377 40070 ft 549 kts 91°
2026-05-07 01:36 59.94846 34.61550 40067 ft 549 kts 91°
2026-05-07 01:37 59.94915 34.76756 40069 ft 549 kts 91°
2026-05-07 01:37 59.94965 34.91994 40074 ft 549 kts 91°
2026-05-07 01:38 59.94998 35.07267 40079 ft 549 kts 91°
2026-05-07 01:38 59.95013 35.22500 40083 ft 548 kts 91°
2026-05-07 01:39 59.95776 35.37520 40088 ft 550 kts 78°
2026-05-07 01:39 59.97488 35.52433 40080 ft 550 kts 76°
2026-05-07 01:40 59.99328 35.67310 40087 ft 550 kts 76°
2026-05-07 01:40 60.01138 35.82112 40093 ft 550 kts 77°
2026-05-07 01:41 60.02910 35.96952 40092 ft 550 kts 77°
2026-05-07 01:41 60.04665 36.11904 40095 ft 550 kts 77°
2026-05-07 01:42 60.06393 36.26779 40094 ft 550 kts 77°
2026-05-07 01:42 60.08113 36.41744 40088 ft 550 kts 77°
2026-05-07 01:43 60.09807 36.56636 40096 ft 550 kts 77°
2026-05-07 01:43 60.11498 36.71670 40095 ft 550 kts 77°
2026-05-07 01:44 60.13059 36.86615 40098 ft 550 kts 80°
2026-05-07 01:44 60.14433 37.01757 40091 ft 548 kts 80°
2026-05-07 01:44 60.15100 37.09209 40094 ft 536 kts 80°
2026-05-07 01:45 60.15758 37.16510 40094 ft 526 kts 80°
2026-05-07 01:45 60.17057 37.30823 40096 ft 522 kts 80°
2026-05-07 01:46 60.18362 37.45233 40092 ft 522 kts 80°
2026-05-07 01:46 60.19652 37.59629 40097 ft 522 kts 80°
2026-05-07 01:47 60.20917 37.73936 40096 ft 522 kts 80°
2026-05-07 01:47 60.22174 37.88354 40089 ft 522 kts 81°
2026-05-07 01:48 60.23414 38.02769 40094 ft 522 kts 81°
2026-05-07 01:48 60.24639 38.17200 40094 ft 522 kts 81°
2026-05-07 01:49 60.25883 38.31521 40092 ft 522 kts 79°
2026-05-07 01:49 60.27256 38.45891 40091 ft 522 kts 79°
2026-05-07 01:50 60.28631 38.60320 40090 ft 522 kts 79°
2026-05-07 01:50 60.29965 38.74724 40096 ft 522 kts 80°
2026-05-07 01:51 60.31264 38.89071 40094 ft 522 kts 80°
2026-05-07 01:51 60.32548 39.03452 40095 ft 522 kts 80°
2026-05-07 01:52 60.33822 39.17903 40095 ft 522 kts 81°
2026-05-07 01:52 60.35081 39.32372 40096 ft 522 kts 81°
2026-05-07 01:53 60.36317 39.46750 40095 ft 522 kts 81°
2026-05-07 01:53 60.37546 39.61239 40088 ft 522 kts 81°
2026-05-07 01:54 60.38760 39.75756 40095 ft 523 kts 81°
2026-05-07 01:54 60.39952 39.90211 40092 ft 523 kts 81°
2026-05-07 01:55 60.41135 40.04756 40095 ft 523 kts 81°
2026-05-07 01:55 60.42302 40.19312 40092 ft 523 kts 81°
2026-05-07 01:56 60.43454 40.33878 40094 ft 524 kts 82°
2026-05-07 01:56 60.44585 40.48394 40091 ft 524 kts 82°
2026-05-07 01:57 60.45701 40.62933 40093 ft 524 kts 82°
2026-05-07 01:57 60.46806 40.77545 40098 ft 524 kts 82°
2026-05-07 01:58 60.47895 40.92180 40098 ft 525 kts 82°
2026-05-07 01:58 60.48984 41.06827 40091 ft 525 kts 82°
2026-05-07 01:59 60.50114 41.21486 40091 ft 525 kts 82°
2026-05-07 01:59 60.51229 41.36064 40091 ft 525 kts 82°
2026-05-07 02:00 60.52323 41.50678 40091 ft 525 kts 82°
2026-05-07 02:00 60.53399 41.65364 40091 ft 526 kts 82°
2026-05-07 02:01 60.54460 41.80072 40085 ft 526 kts 82°
2026-05-07 02:01 60.55504 41.94789 40082 ft 526 kts 82°
2026-05-07 02:02 60.56534 42.09541 40085 ft 526 kts 82°
2026-05-07 02:02 60.57531 42.24314 40090 ft 527 kts 83°
2026-05-07 02:03 60.58456 42.39011 40083 ft 527 kts 83°
2026-05-07 02:03 60.59369 42.53791 40082 ft 527 kts 83°
2026-05-07 02:04 60.60278 42.68621 40085 ft 527 kts 83°
2026-05-07 02:04 60.61171 42.83392 40090 ft 528 kts 83°
2026-05-07 02:05 60.62051 42.98247 40089 ft 527 kts 83°
2026-05-07 02:05 60.62912 43.13048 40086 ft 528 kts 84°
2026-05-07 02:06 60.63761 43.27944 40084 ft 528 kts 84°
2026-05-07 02:06 60.64592 43.42823 40084 ft 528 kts 84°
2026-05-07 02:07 60.65402 43.57640 40076 ft 528 kts 84°
2026-05-07 02:07 60.66594 43.80006 40071 ft 529 kts 84°
2026-05-07 02:08 60.67335 43.94948 40075 ft 529 kts 85°
2026-05-07 02:08 60.67994 44.09830 40071 ft 529 kts 85°
2026-05-07 02:09 60.68642 44.24843 40070 ft 530 kts 85°
2026-05-07 02:09 60.69285 44.39845 40071 ft 530 kts 85°
2026-05-07 02:10 60.69915 44.54842 40070 ft 530 kts 85°
2026-05-07 02:10 60.70528 44.69791 40063 ft 531 kts 85°
2026-05-07 02:11 60.71127 44.84855 40064 ft 531 kts 85°
2026-05-07 02:11 60.71708 44.99912 40061 ft 531 kts 86°
2026-05-07 02:12 60.72269 45.14882 40061 ft 531 kts 86°
2026-05-07 02:12 60.72817 45.29953 40064 ft 531 kts 86°
2026-05-07 02:13 60.73346 45.44948 40062 ft 531 kts 86°
2026-05-07 02:13 60.73919 45.60043 40062 ft 531 kts 85°
2026-05-07 02:14 60.74538 45.75090 40059 ft 532 kts 85°
2026-05-07 02:14 60.75133 45.90096 40059 ft 531 kts 85°
2026-05-07 02:15 60.75702 46.05191 40055 ft 531 kts 86°
2026-05-07 02:15 60.76248 46.20281 40056 ft 532 kts 86°
2026-05-07 02:16 60.76777 46.35393 40049 ft 532 kts 86°
2026-05-07 02:16 60.77288 46.50419 40054 ft 532 kts 86°
2026-05-07 02:17 60.77785 46.65536 40051 ft 532 kts 86°
2026-05-07 02:17 60.78261 46.80580 40050 ft 532 kts 86°
2026-05-07 02:18 60.78757 46.95711 40047 ft 532 kts 86°
2026-05-07 02:18 60.79299 47.10865 40045 ft 532 kts 86°
2026-05-07 02:19 60.79821 47.25908 40049 ft 532 kts 86°
2026-05-07 02:19 60.80281 47.41033 40048 ft 532 kts 88°
2026-05-07 02:20 60.80537 47.56272 40042 ft 533 kts 89°
2026-05-07 02:20 60.80749 47.71372 40046 ft 533 kts 88°
2026-05-07 02:21 60.80936 47.84017 40037 ft 533 kts 88°
2026-05-07 02:21 60.81199 48.01676 40033 ft 533 kts 88°
2026-05-07 02:22 60.81377 48.14340 40037 ft 533 kts 89°
2026-05-07 02:22 60.81574 48.29535 40032 ft 533 kts 89°
2026-05-07 02:23 60.81749 48.44729 40032 ft 533 kts 89°
2026-05-07 02:23 60.81821 48.59830 40028 ft 533 kts 90°
2026-05-07 02:24 60.81848 48.75019 40023 ft 533 kts 90°
2026-05-07 02:24 60.81871 48.90221 40020 ft 533 kts 90°
2026-05-07 02:25 60.81888 49.05428 40014 ft 533 kts 90°
2026-05-07 02:25 60.81890 49.20630 40015 ft 533 kts 90°
2026-05-07 02:26 60.81875 49.35756 40013 ft 533 kts 90°
2026-05-07 02:26 60.81843 49.50977 40007 ft 533 kts 90°
2026-05-07 02:27 60.81792 49.66172 40005 ft 533 kts 91°
2026-05-07 02:27 60.81725 49.81386 40003 ft 533 kts 91°
2026-05-07 02:28 60.81659 49.96528 40000 ft 533 kts 90°
2026-05-07 02:28 60.81722 50.11764 39994 ft 534 kts 89°
2026-05-07 02:29 60.81803 50.26916 39994 ft 534 kts 90°
2026-05-07 02:29 60.81847 50.42162 39988 ft 534 kts 90°
2026-05-07 02:30 60.81860 50.57313 39984 ft 534 kts 90°
2026-05-07 02:30 60.81851 50.72567 39981 ft 534 kts 90°
2026-05-07 02:31 60.81827 50.87702 39980 ft 534 kts 90°
2026-05-07 02:31 60.81785 51.02927 39979 ft 534 kts 91°
2026-05-07 02:32 60.81728 51.18161 39973 ft 534 kts 91°
2026-05-07 02:32 60.81653 51.33419 39975 ft 534 kts 91°
2026-05-07 02:33 60.81555 51.48569 39973 ft 534 kts 91°
2026-05-07 02:33 60.81435 51.63840 39971 ft 534 kts 91°
2026-05-07 02:34 60.81300 51.79013 39969 ft 535 kts 91°
2026-05-07 02:34 60.81147 51.94279 39973 ft 535 kts 91°
2026-05-07 02:35 60.80979 52.09454 39971 ft 535 kts 91°
2026-05-07 02:35 60.80793 52.24731 39971 ft 535 kts 92°
2026-05-07 02:36 60.80590 52.39963 39971 ft 535 kts 92°
2026-05-07 02:36 60.80370 52.55122 39969 ft 535 kts 92°
2026-05-07 02:37 60.80133 52.70367 39972 ft 535 kts 92°
2026-05-07 02:37 60.79877 52.85613 39974 ft 535 kts 92°
2026-05-07 02:38 60.79604 53.00855 39974 ft 535 kts 92°
2026-05-07 02:38 60.79317 53.15985 39973 ft 535 kts 92°
2026-05-07 02:39 60.79011 53.31199 39972 ft 535 kts 92°
2026-05-07 02:39 60.78687 53.46407 39971 ft 535 kts 93°
2026-05-07 02:40 60.78346 53.61646 39966 ft 535 kts 93°
2026-05-07 02:40 60.77980 53.76857 39965 ft 534 kts 93°
2026-05-07 02:41 60.77582 53.91988 39960 ft 534 kts 94°
2026-05-07 02:41 60.77167 54.07170 39958 ft 534 kts 94°
2026-05-07 02:42 60.76738 54.22366 39955 ft 534 kts 94°
2026-05-07 02:42 60.76296 54.37449 39953 ft 533 kts 94°
2026-05-07 02:43 60.75836 54.52602 39950 ft 533 kts 94°
2026-05-07 02:43 60.75357 54.67754 39946 ft 533 kts 94°
2026-05-07 02:44 60.74865 54.82812 39942 ft 533 kts 94°
2026-05-07 02:44 60.74353 54.97932 39940 ft 532 kts 95°
2026-05-07 02:45 60.73824 55.13071 39942 ft 532 kts 95°
2026-05-07 02:45 60.73282 55.28067 39936 ft 532 kts 95°
2026-05-07 02:46 60.72720 55.43182 39931 ft 532 kts 95°
2026-05-07 02:46 60.72142 55.58240 39935 ft 531 kts 95°
2026-05-07 02:47 60.71550 55.73228 39927 ft 531 kts 95°
2026-05-07 02:47 60.70933 55.88257 39923 ft 531 kts 96°
2026-05-07 02:48 60.70291 56.03288 39922 ft 531 kts 96°
2026-05-07 02:48 60.69634 56.18307 39917 ft 531 kts 96°
2026-05-07 02:49 60.68963 56.33327 39919 ft 531 kts 96°
2026-05-07 02:49 60.68280 56.48224 39920 ft 530 kts 96°
2026-05-07 02:50 60.67575 56.63235 39908 ft 530 kts 96°
2026-05-07 02:50 60.66857 56.78144 39902 ft 530 kts 96°
2026-05-07 02:51 60.66119 56.93148 39900 ft 530 kts 96°
2026-05-07 02:51 60.65369 57.08026 39908 ft 529 kts 97°
2026-05-07 02:52 60.64600 57.22966 39890 ft 529 kts 97°
2026-05-07 02:52 60.63815 57.37888 39891 ft 529 kts 97°
2026-05-07 02:53 60.63016 57.52802 39894 ft 529 kts 97°
2026-05-07 02:53 60.62197 57.67699 39885 ft 528 kts 97°
2026-05-07 02:54 60.61363 57.82484 39880 ft 528 kts 97°
2026-05-07 02:54 60.60510 57.97339 39875 ft 527 kts 98°
2026-05-07 02:55 60.59642 58.12183 39875 ft 526 kts 98°
2026-05-07 02:55 60.58766 58.26890 39869 ft 526 kts 98°
2026-05-07 02:56 60.57869 58.41665 39863 ft 525 kts 98°
2026-05-07 02:56 60.56962 58.56332 39858 ft 524 kts 98°
2026-05-07 02:57 60.56033 58.71077 39850 ft 524 kts 98°
2026-05-07 02:57 60.55091 58.85766 39846 ft 525 kts 99°
2026-05-07 02:58 60.54137 59.00390 39840 ft 525 kts 99°
2026-05-07 02:58 60.53159 59.15119 39837 ft 526 kts 99°
2026-05-07 02:59 60.52162 59.29882 39833 ft 526 kts 99°
2026-05-07 02:59 60.51154 59.44566 39827 ft 527 kts 99°
2026-05-07 03:00 60.50122 59.59342 39824 ft 528 kts 99°
2026-05-07 03:00 60.49079 59.74036 39821 ft 529 kts 99°
2026-05-07 03:01 60.48013 59.88828 39818 ft 529 kts 99°
2026-05-07 03:01 60.46940 60.03478 39817 ft 529 kts 100°
2026-05-07 03:02 60.45850 60.18131 39808 ft 528 kts 100°
2026-05-07 03:02 60.44738 60.32843 39804 ft 528 kts 100°
2026-05-07 03:03 60.43610 60.47551 39800 ft 527 kts 101°
2026-05-07 03:03 60.42465 60.62243 39794 ft 527 kts 101°
2026-05-07 03:04 60.41315 60.76805 39791 ft 527 kts 101°
2026-05-07 03:04 60.40140 60.91461 39781 ft 526 kts 101°
2026-05-07 03:05 60.38958 61.05991 39776 ft 526 kts 101°
2026-05-07 03:05 60.37753 61.20597 39775 ft 526 kts 101°
2026-05-07 03:06 60.36531 61.35214 39767 ft 526 kts 101°
2026-05-07 03:06 60.35302 61.49704 39763 ft 526 kts 102°
2026-05-07 03:07 60.34048 61.64287 39753 ft 526 kts 102°
2026-05-07 03:07 60.32779 61.78863 39749 ft 526 kts 102°
2026-05-07 03:08 60.31712 61.90961 39746 ft 526 kts 102°
2026-05-07 03:08 60.30421 62.05438 39748 ft 527 kts 102°
2026-05-07 03:09 60.29127 62.20005 39740 ft 527 kts 101°
2026-05-07 03:09 60.27886 62.34591 39733 ft 527 kts 101°
2026-05-07 03:10 60.26642 62.49086 39733 ft 527 kts 101°
2026-05-07 03:10 60.25368 62.63601 39733 ft 527 kts 101°
2026-05-07 03:11 60.24070 62.78136 39730 ft 526 kts 102°
2026-05-07 03:11 60.22766 62.92551 39726 ft 526 kts 102°
2026-05-07 03:12 60.21436 63.07052 39724 ft 526 kts 102°
2026-05-07 03:12 60.20092 63.21535 39725 ft 526 kts 102°
2026-05-07 03:13 60.18743 63.35894 39721 ft 525 kts 102°
2026-05-07 03:13 60.17371 63.50313 39718 ft 524 kts 102°
2026-05-07 03:14 60.15984 63.64715 39715 ft 524 kts 102°
2026-05-07 03:15 60.13888 63.86172 39714 ft 523 kts 103°
2026-05-07 03:15 60.13192 64.00727 39716 ft 524 kts 93°
2026-05-07 03:16 60.12928 64.15268 39711 ft 524 kts 92°
2026-05-07 03:16 60.12708 64.29900 39706 ft 523 kts 92°
2026-05-07 03:17 60.12461 64.44504 39708 ft 523 kts 92°
2026-05-07 03:17 60.12186 64.59007 39705 ft 523 kts 93°
2026-05-07 03:18 60.11888 64.73581 39703 ft 522 kts 93°
2026-05-07 03:18 60.11566 64.88172 39705 ft 522 kts 94°
2026-05-07 03:19 60.11012 65.02636 39708 ft 522 kts 96°
2026-05-07 03:19 60.10352 65.17161 39702 ft 522 kts 96°
2026-05-07 03:20 60.09709 65.31664 39701 ft 522 kts 96°
2026-05-07 03:20 60.09083 65.46048 39703 ft 521 kts 96°
2026-05-07 03:21 60.08444 65.60535 39698 ft 521 kts 96°
2026-05-07 03:21 60.07789 65.75017 39700 ft 521 kts 96°
2026-05-07 03:22 60.07116 65.89492 39697 ft 521 kts 96°
2026-05-07 03:22 60.06432 66.03862 39699 ft 521 kts 96°
2026-05-07 03:23 60.05728 66.18325 39701 ft 521 kts 96°
2026-05-07 03:23 60.05008 66.32772 39694 ft 521 kts 97°
2026-05-07 03:24 60.04278 66.47106 39695 ft 521 kts 97°
2026-05-07 03:24 60.03527 66.61549 39692 ft 521 kts 97°
2026-05-07 03:25 60.02720 66.75950 39694 ft 520 kts 98°
2026-05-07 03:25 60.01788 66.90288 39694 ft 520 kts 98°
2026-05-07 03:26 60.00841 67.04523 39694 ft 520 kts 98°
2026-05-07 03:26 59.99889 67.18883 39694 ft 519 kts 98°
2026-05-07 03:27 59.98933 67.33204 39695 ft 519 kts 98°
2026-05-07 03:27 59.97970 67.47417 39690 ft 519 kts 99°
2026-05-07 03:28 59.96986 67.61703 39694 ft 519 kts 99°
2026-05-07 03:28 59.95984 67.75993 39694 ft 518 kts 99°
2026-05-07 03:29 59.94975 67.90160 39691 ft 518 kts 99°
2026-05-07 03:29 59.93942 68.04432 39691 ft 518 kts 99°
2026-05-07 03:30 59.92899 68.18636 39691 ft 518 kts 99°
2026-05-07 03:30 59.91838 68.32862 39691 ft 518 kts 99°
2026-05-07 03:31 59.90777 68.46985 39696 ft 518 kts 99°
2026-05-07 03:31 59.89687 68.61197 39691 ft 518 kts 100°
2026-05-07 03:32 59.88583 68.75379 39707 ft 517 kts 100°
2026-05-07 03:32 59.87473 68.89463 39694 ft 517 kts 100°
2026-05-07 03:33 59.86339 69.03652 39707 ft 517 kts 100°
2026-05-07 03:33 59.85201 69.17688 39707 ft 517 kts 100°
2026-05-07 03:34 59.84041 69.31808 39698 ft 516 kts 100°
2026-05-07 03:34 59.82866 69.45921 39706 ft 516 kts 101°
2026-05-07 03:35 59.81593 69.59977 39699 ft 515 kts 107°
2026-05-07 03:35 59.79715 69.73620 39710 ft 514 kts 108°
2026-05-07 03:36 59.77695 69.87255 39706 ft 514 kts 108°
2026-05-07 03:36 59.75646 70.00873 39711 ft 514 kts 108°
2026-05-07 03:37 59.73608 70.14395 39713 ft 514 kts 108°
2026-05-07 03:37 59.71553 70.27964 39714 ft 513 kts 108°
2026-05-07 03:38 59.69494 70.41473 39717 ft 513 kts 108°
2026-05-07 03:38 59.67417 70.54980 39726 ft 513 kts 109°
2026-05-07 03:39 59.65334 70.68424 39723 ft 512 kts 109°
2026-05-07 03:39 59.63232 70.81885 39729 ft 512 kts 109°
2026-05-07 03:40 59.61113 70.95340 39733 ft 512 kts 109°
2026-05-07 03:40 59.58995 71.08688 39736 ft 512 kts 109°
2026-05-07 03:41 59.56849 71.22116 39741 ft 512 kts 109°
2026-05-07 03:41 59.54693 71.35498 39743 ft 512 kts 109°
2026-05-07 03:42 59.52526 71.48854 39749 ft 511 kts 109°
2026-05-07 03:42 59.50356 71.62118 39752 ft 511 kts 109°
2026-05-07 03:43 59.48157 71.75468 39754 ft 511 kts 109°
2026-05-07 03:43 59.45963 71.88682 39759 ft 511 kts 110°
2026-05-07 03:44 59.43742 72.01964 39762 ft 511 kts 110°
2026-05-07 03:44 59.41502 72.15262 39765 ft 511 kts 110°
2026-05-07 03:45 59.39266 72.28436 39765 ft 510 kts 110°
2026-05-07 03:45 59.37004 72.41666 39775 ft 510 kts 110°
2026-05-07 03:46 59.34743 72.54802 39778 ft 510 kts 110°
2026-05-07 03:46 59.32458 72.67980 39779 ft 510 kts 110°
2026-05-07 03:47 59.30168 72.81089 39782 ft 510 kts 110°
2026-05-07 03:47 59.27861 72.94210 39783 ft 510 kts 110°
2026-05-07 03:48 59.25554 73.07233 39791 ft 509 kts 110°
2026-05-07 03:48 59.23220 73.20315 39789 ft 509 kts 110°
2026-05-07 03:49 59.20873 73.33383 39794 ft 509 kts 111°
2026-05-07 03:49 59.18518 73.46406 39802 ft 509 kts 111°
2026-05-07 03:50 59.16144 73.59438 39808 ft 509 kts 111°
2026-05-07 03:50 59.13776 73.72349 39807 ft 509 kts 111°
2026-05-07 03:51 59.11382 73.85321 39804 ft 509 kts 111°
2026-05-07 03:51 59.08970 73.98294 39815 ft 509 kts 111°
2026-05-07 03:52 59.06549 74.11227 39819 ft 508 kts 111°
2026-05-07 03:52 59.04123 74.24043 39822 ft 508 kts 111°
2026-05-07 03:53 59.01670 74.36905 39830 ft 508 kts 111°
2026-05-07 03:53 58.99202 74.49779 39828 ft 508 kts 111°
2026-05-07 03:54 58.96722 74.62632 39833 ft 508 kts 112°
2026-05-07 03:54 58.94248 74.75372 39838 ft 508 kts 112°
2026-05-07 03:55 58.91740 74.88205 39840 ft 508 kts 112°
2026-05-07 03:55 58.89237 75.00926 39844 ft 508 kts 112°
2026-05-07 03:56 58.86711 75.13684 39845 ft 508 kts 112°
2026-05-07 03:56 58.84600 75.24284 39850 ft 508 kts 112°
2026-05-07 03:57 58.82047 75.37028 39853 ft 508 kts 112°
2026-05-07 03:57 58.79480 75.49760 39864 ft 508 kts 112°
2026-05-07 03:58 58.76919 75.62380 39857 ft 508 kts 112°
2026-05-07 03:58 58.74336 75.75031 39869 ft 508 kts 112°
2026-05-07 03:59 58.71737 75.87682 39862 ft 508 kts 112°
2026-05-07 03:59 58.69133 76.00276 39869 ft 508 kts 113°
2026-05-07 04:00 58.66504 76.12913 39875 ft 508 kts 113°
2026-05-07 04:00 58.63882 76.25440 39872 ft 508 kts 113°
2026-05-07 04:01 58.61233 76.38013 39880 ft 508 kts 113°
2026-05-07 04:01 58.58570 76.50583 39879 ft 508 kts 113°
2026-05-07 04:02 58.55729 76.62977 39885 ft 508 kts 117°
2026-05-07 04:02 58.52614 76.75111 39889 ft 508 kts 117°
2026-05-07 04:03 58.49506 76.87196 39896 ft 508 kts 117°
2026-05-07 04:03 58.46419 76.99360 39892 ft 508 kts 117°
2026-05-07 04:04 58.43344 77.11515 39900 ft 508 kts 117°
2026-05-07 04:04 58.40272 77.23601 39909 ft 508 kts 117°
2026-05-07 04:05 58.37174 77.35714 39904 ft 508 kts 117°
2026-05-07 04:05 58.34063 77.47803 39910 ft 507 kts 117°
2026-05-07 04:06 58.30966 77.59772 39911 ft 507 kts 117°
2026-05-07 04:06 58.27835 77.71812 39916 ft 507 kts 117°
2026-05-07 04:07 58.24697 77.83809 39914 ft 507 kts 117°
2026-05-07 04:07 58.21566 77.95723 39920 ft 506 kts 117°
2026-05-07 04:08 58.18403 78.07688 39920 ft 506 kts 117°
2026-05-07 04:08 58.15232 78.19619 39927 ft 506 kts 118°
2026-05-07 04:09 58.12074 78.31436 39930 ft 506 kts 118°
2026-05-07 04:09 58.08885 78.43317 39935 ft 506 kts 118°
2026-05-07 04:10 58.05690 78.55155 39936 ft 505 kts 118°
2026-05-07 04:10 58.02481 78.66983 39943 ft 505 kts 118°
2026-05-07 04:11 57.99263 78.78780 39943 ft 505 kts 118°
2026-05-07 04:11 57.96054 78.90485 39948 ft 505 kts 118°
2026-05-07 04:12 57.92814 79.02240 39952 ft 505 kts 118°
2026-05-07 04:12 57.89558 79.13994 39956 ft 505 kts 118°
2026-05-07 04:13 57.86315 79.25641 39960 ft 505 kts 118°
2026-05-07 04:13 57.83055 79.37290 39959 ft 505 kts 118°
2026-05-07 04:14 57.79779 79.48941 39965 ft 505 kts 119°
2026-05-07 04:14 57.76491 79.60571 39970 ft 505 kts 119°
2026-05-07 04:15 57.73194 79.72176 39972 ft 504 kts 119°
2026-05-07 04:15 57.69824 79.83699 39978 ft 504 kts 120°
2026-05-07 04:16 57.66376 79.95112 39979 ft 504 kts 121°
2026-05-07 04:16 57.62942 80.06455 39983 ft 504 kts 120°
2026-05-07 04:17 57.59494 80.17857 39981 ft 504 kts 120°
2026-05-07 04:17 57.56042 80.29238 39987 ft 504 kts 120°
2026-05-07 04:18 57.52582 80.40591 39989 ft 504 kts 121°
2026-05-07 04:18 57.49133 80.51854 39992 ft 504 kts 121°
2026-05-07 04:19 57.45650 80.63169 39989 ft 503 kts 121°
2026-05-07 04:19 57.42164 80.74440 39996 ft 503 kts 121°
2026-05-07 04:20 57.38662 80.85706 39999 ft 503 kts 121°
2026-05-07 04:20 57.35179 80.96862 40002 ft 503 kts 121°
2026-05-07 04:21 57.29897 81.13679 40007 ft 503 kts 121°
2026-05-07 04:21 57.26368 81.24851 40007 ft 502 kts 121°
2026-05-07 04:22 57.22854 81.35922 40012 ft 502 kts 121°
2026-05-07 04:22 57.19300 81.47064 40016 ft 502 kts 122°
2026-05-07 04:23 57.15763 81.58099 40009 ft 502 kts 122°
2026-05-07 04:23 57.12198 81.69176 40018 ft 502 kts 122°
2026-05-07 04:24 57.08635 81.80190 40019 ft 502 kts 122°
2026-05-07 04:24 57.05047 81.91230 40023 ft 502 kts 122°
2026-05-07 04:25 57.01455 82.02234 40023 ft 502 kts 122°
2026-05-07 04:25 56.97933 82.13322 40025 ft 502 kts 119°
2026-05-07 04:26 56.94805 82.24702 40029 ft 503 kts 117°
2026-05-07 04:26 56.91695 82.36211 40039 ft 503 kts 117°
2026-05-07 04:27 56.88520 82.47630 40032 ft 503 kts 118°
2026-05-07 04:27 56.85297 82.58999 40038 ft 503 kts 118°
2026-05-07 04:28 56.82069 82.70299 40038 ft 504 kts 118°
2026-05-07 04:28 56.78811 82.81659 40038 ft 504 kts 119°
2026-05-07 04:29 56.75566 82.92929 40042 ft 504 kts 119°
2026-05-07 04:29 56.72290 83.04249 40043 ft 505 kts 119°
2026-05-07 04:30 56.69005 83.15550 40045 ft 505 kts 119°
2026-05-07 04:30 56.65716 83.26809 40045 ft 505 kts 119°
2026-05-07 04:31 56.62398 83.38109 40047 ft 505 kts 119°
2026-05-07 04:31 56.59098 83.49300 40048 ft 505 kts 119°
2026-05-07 04:32 56.55752 83.60588 40051 ft 505 kts 120°
2026-05-07 04:32 56.52426 83.71755 40054 ft 505 kts 120°
2026-05-07 04:33 56.49073 83.82959 40054 ft 505 kts 120°
2026-05-07 04:33 56.45725 83.94095 40056 ft 505 kts 120°
2026-05-07 04:34 56.42352 84.05259 40057 ft 506 kts 120°
2026-05-07 04:34 56.38965 84.16416 40055 ft 506 kts 120°
2026-05-07 04:35 56.35568 84.27556 40047 ft 505 kts 120°
2026-05-07 04:35 56.32188 84.38585 40048 ft 505 kts 120°
2026-05-07 04:36 56.28771 84.49685 40049 ft 505 kts 120°
2026-05-07 04:36 56.25349 84.60747 40044 ft 506 kts 120°
2026-05-07 04:37 56.21936 84.71730 40045 ft 506 kts 120°
2026-05-07 04:37 56.18487 84.82777 40046 ft 506 kts 120°
2026-05-07 04:38 56.15044 84.93757 40046 ft 506 kts 121°
2026-05-07 04:38 56.11576 85.04763 40047 ft 506 kts 121°
2026-05-07 04:39 56.08093 85.15767 40048 ft 506 kts 121°
2026-05-07 04:39 56.04611 85.26717 40047 ft 506 kts 121°
2026-05-07 04:40 56.01137 85.37590 40045 ft 506 kts 121°
2026-05-07 04:40 55.98203 85.46734 40042 ft 506 kts 121°
2026-05-07 04:41 55.94109 85.59431 40041 ft 506 kts 121°
2026-05-07 04:41 55.91083 85.68384 40038 ft 506 kts 123°
2026-05-07 04:42 55.87360 85.79066 40036 ft 506 kts 123°
2026-05-07 04:42 55.83671 85.89648 40034 ft 506 kts 123°
2026-05-07 04:43 55.79966 86.00307 40030 ft 506 kts 123°
2026-05-07 04:43 55.76297 86.10905 40033 ft 506 kts 122°
2026-05-07 04:44 55.72651 86.21606 40032 ft 506 kts 122°
2026-05-07 04:44 55.69016 86.32255 40034 ft 506 kts 122°
2026-05-07 04:45 55.65350 86.42915 40031 ft 506 kts 122°
2026-05-07 04:45 55.61672 86.53548 40036 ft 506 kts 122°
2026-05-07 04:46 55.57987 86.64152 40042 ft 506 kts 123°
2026-05-07 04:46 55.54308 86.74690 40038 ft 506 kts 123°
2026-05-07 04:47 55.50607 86.85250 40035 ft 506 kts 123°
2026-05-07 04:47 55.46888 86.95812 40038 ft 506 kts 123°
2026-05-07 04:48 55.43178 87.06307 40039 ft 505 kts 123°
2026-05-07 04:48 55.39443 87.16825 40041 ft 505 kts 123°
2026-05-07 04:49 55.35708 87.27300 40039 ft 505 kts 123°
2026-05-07 04:49 55.31983 87.37698 40042 ft 505 kts 123°
2026-05-07 04:50 55.28224 87.48151 40043 ft 505 kts 123°
2026-05-07 04:50 55.24486 87.58500 40047 ft 505 kts 123°
2026-05-07 04:51 55.20710 87.68910 40048 ft 505 kts 123°
2026-05-07 04:51 55.16930 87.79287 40044 ft 505 kts 123°
2026-05-07 04:52 55.13157 87.89583 40044 ft 505 kts 124°
2026-05-07 04:52 55.09340 87.99867 40047 ft 505 kts 124°
2026-05-07 04:53 55.05506 88.10159 40046 ft 504 kts 124°
2026-05-07 04:53 55.01695 88.20362 40046 ft 504 kts 124°
2026-05-07 04:54 54.97851 88.30617 40047 ft 505 kts 124°
2026-05-07 04:54 54.93997 88.40857 40048 ft 505 kts 124°
2026-05-07 04:55 54.90160 88.51011 40045 ft 505 kts 124°
2026-05-07 04:55 54.86286 88.61222 40040 ft 505 kts 124°
2026-05-07 04:56 54.82404 88.71408 40042 ft 506 kts 124°
2026-05-07 04:56 54.78542 88.81526 40036 ft 506 kts 124°
2026-05-07 04:57 54.74643 88.91693 40032 ft 506 kts 124°
2026-05-07 04:57 54.70732 89.01844 40020 ft 506 kts 124°
2026-05-07 04:58 54.66813 89.11978 40020 ft 507 kts 124°
2026-05-07 04:58 54.62901 89.22055 40016 ft 507 kts 124°
2026-05-07 04:59 54.58957 89.32172 40015 ft 508 kts 124°
2026-05-07 04:59 54.55000 89.42281 40014 ft 508 kts 124°
2026-05-07 05:00 54.51035 89.52367 40011 ft 509 kts 124°
2026-05-07 05:00 54.47081 89.62387 40004 ft 509 kts 124°
2026-05-07 05:01 54.43086 89.72471 40015 ft 509 kts 124°
2026-05-07 05:01 54.39095 89.82504 39998 ft 509 kts 124°
2026-05-07 05:02 54.35113 89.92474 39997 ft 509 kts 124°
2026-05-07 05:02 54.31096 90.02492 40020 ft 509 kts 125°
2026-05-07 05:03 54.27081 90.12464 39994 ft 505 kts 125°
2026-05-07 05:03 54.23106 90.22296 39997 ft 504 kts 125°
2026-05-07 05:04 54.19103 90.32158 39998 ft 504 kts 125°
2026-05-07 05:04 54.15118 90.41940 39995 ft 504 kts 125°
2026-05-07 05:05 54.11099 90.51768 39991 ft 503 kts 126°
2026-05-07 05:05 54.07105 90.61492 39993 ft 503 kts 126°
2026-05-07 05:06 54.03079 90.71260 39990 ft 503 kts 126°
2026-05-07 05:06 53.99044 90.81010 39987 ft 503 kts 126°
2026-05-07 05:07 53.95022 90.90693 39986 ft 503 kts 126°
2026-05-07 05:07 53.90977 91.00391 39998 ft 503 kts 126°
2026-05-07 05:08 53.86942 91.10027 40007 ft 503 kts 126°
2026-05-07 05:08 53.82878 91.19696 40014 ft 503 kts 126°
2026-05-07 05:09 53.78811 91.29337 40021 ft 503 kts 126°
2026-05-07 05:09 53.74748 91.38931 40021 ft 503 kts 127°
2026-05-07 05:10 53.70890 91.48820 40022 ft 503 kts 122°
2026-05-07 05:10 53.67247 91.58904 40014 ft 503 kts 122°
2026-05-07 05:11 53.63591 91.68884 40008 ft 503 kts 123°
2026-05-07 05:11 53.59858 91.78862 40004 ft 503 kts 123°
2026-05-07 05:12 53.56103 91.88797 39996 ft 503 kts 123°
2026-05-07 05:12 53.52335 91.98725 39998 ft 503 kts 123°
2026-05-07 05:13 53.48587 92.08566 39999 ft 502 kts 123°
2026-05-07 05:13 53.44811 92.18447 40001 ft 502 kts 123°
2026-05-07 05:14 53.41027 92.28309 40004 ft 502 kts 123°
2026-05-07 05:14 53.37231 92.38166 40007 ft 502 kts 123°
2026-05-07 05:15 53.33458 92.47926 40010 ft 502 kts 123°
2026-05-07 05:15 53.29655 92.57722 40009 ft 502 kts 123°
2026-05-07 05:16 53.25838 92.67519 40012 ft 502 kts 123°
2026-05-07 05:16 53.22011 92.77300 40007 ft 502 kts 124°
2026-05-07 05:17 53.18196 92.87015 40018 ft 502 kts 124°
2026-05-07 05:17 53.14360 92.96745 40021 ft 502 kts 124°
2026-05-07 05:18 53.10510 93.06473 40025 ft 502 kts 124°
2026-05-07 05:18 53.06680 93.16113 40031 ft 502 kts 124°
2026-05-07 05:19 53.02804 93.25832 40031 ft 502 kts 124°
2026-05-07 05:19 52.98960 93.35433 40039 ft 502 kts 124°
2026-05-07 05:20 52.95086 93.45076 40037 ft 502 kts 124°
2026-05-07 05:20 52.91203 93.54703 40040 ft 502 kts 124°
2026-05-07 05:21 52.85389 93.69046 40039 ft 502 kts 124°
2026-05-07 05:22 52.81482 93.78634 40041 ft 502 kts 124°
2026-05-07 05:22 52.77557 93.88165 40034 ft 502 kts 124°
2026-05-07 05:23 52.73621 93.97687 40035 ft 502 kts 125°
2026-05-07 05:23 52.69692 94.07170 40027 ft 501 kts 125°
2026-05-07 05:24 52.65765 94.16618 40020 ft 501 kts 125°
2026-05-07 05:24 52.61812 94.26093 40018 ft 501 kts 125°
2026-05-07 05:25 52.57853 94.35549 40015 ft 501 kts 125°
2026-05-07 05:25 52.53890 94.44980 40022 ft 501 kts 125°
2026-05-07 05:26 52.49946 94.54330 40006 ft 501 kts 125°
2026-05-07 05:26 52.45960 94.63741 40004 ft 501 kts 125°
2026-05-07 05:27 52.41974 94.73121 39999 ft 501 kts 126°
2026-05-07 05:27 52.37982 94.82480 39997 ft 501 kts 126°
2026-05-07 05:28 52.34009 94.91760 39998 ft 501 kts 126°
2026-05-07 05:28 52.30001 95.01088 39983 ft 501 kts 126°
2026-05-07 05:29 52.25989 95.10391 39986 ft 501 kts 126°
2026-05-07 05:29 52.21980 95.19653 39990 ft 501 kts 126°
2026-05-07 05:30 52.17951 95.28928 39969 ft 502 kts 126°
2026-05-07 05:30 52.14591 95.36640 39975 ft 502 kts 126°
2026-05-07 05:31 52.10535 95.45918 39971 ft 502 kts 126°
2026-05-07 05:31 52.06471 95.55177 39957 ft 502 kts 126°
2026-05-07 05:32 52.02428 95.64356 39940 ft 502 kts 126°
2026-05-07 05:32 51.98356 95.73569 39952 ft 502 kts 126°
2026-05-07 05:33 51.94271 95.82783 39944 ft 502 kts 126°
2026-05-07 05:33 51.90210 95.91908 39931 ft 502 kts 126°
2026-05-07 05:34 51.86110 96.01083 39928 ft 502 kts 126°
2026-05-07 05:34 51.82017 96.10211 39930 ft 501 kts 127°
2026-05-07 05:35 51.77913 96.19327 39923 ft 501 kts 127°
2026-05-07 05:35 51.73822 96.28392 39924 ft 500 kts 127°
2026-05-07 05:36 51.69715 96.37460 39928 ft 500 kts 127°
2026-05-07 05:36 51.65630 96.46444 39926 ft 500 kts 127°
2026-05-07 05:37 51.61515 96.55462 39928 ft 499 kts 127°
2026-05-07 05:37 51.57389 96.64475 39923 ft 499 kts 127°
2026-05-07 05:38 51.53286 96.73409 39930 ft 499 kts 127°
2026-05-07 05:38 51.49155 96.82369 39929 ft 498 kts 127°
2026-05-07 05:39 51.45020 96.91307 39933 ft 498 kts 127°
2026-05-07 05:39 51.40909 97.00158 39927 ft 498 kts 127°
2026-05-07 05:40 51.36754 97.09075 39937 ft 498 kts 127°
2026-05-07 05:40 51.32623 97.17917 39935 ft 498 kts 127°
2026-05-07 05:41 51.28458 97.26796 39937 ft 498 kts 127°
2026-05-07 05:41 51.24294 97.35643 39940 ft 498 kts 127°
2026-05-07 05:42 51.20151 97.44415 39941 ft 498 kts 128°
2026-05-07 05:42 51.15972 97.53239 39937 ft 498 kts 128°
2026-05-07 05:43 51.11784 97.62047 39937 ft 498 kts 128°
2026-05-07 05:43 51.07595 97.70826 39939 ft 498 kts 128°
2026-05-07 05:44 51.03409 97.79568 39942 ft 498 kts 128°
2026-05-07 05:44 50.99328 97.88498 39954 ft 499 kts 123°
2026-05-07 05:45 50.95630 97.97780 39956 ft 499 kts 122°
2026-05-07 05:45 50.91986 98.07114 39965 ft 499 kts 122°
2026-05-07 05:46 50.88318 98.16482 39973 ft 499 kts 122°
2026-05-07 05:46 50.84637 98.25825 39985 ft 500 kts 122°
2026-05-07 05:47 50.80938 98.35164 39993 ft 500 kts 122°
2026-05-07 05:47 50.77253 98.44432 39989 ft 501 kts 122°
2026-05-07 05:48 50.73527 98.53766 39988 ft 501 kts 122°
2026-05-07 05:48 50.69792 98.63090 39989 ft 502 kts 123°
2026-05-07 05:49 50.66076 98.72347 39989 ft 503 kts 123°
2026-05-07 05:49 50.62319 98.81663 39987 ft 503 kts 123°
2026-05-07 05:50 50.58551 98.90972 39978 ft 504 kts 123°
2026-05-07 05:50 50.54776 99.00265 39970 ft 504 kts 123°
2026-05-07 05:51 50.50999 99.09527 39973 ft 504 kts 123°
2026-05-07 05:51 50.47227 99.18750 39973 ft 504 kts 123°
2026-05-07 05:52 50.43416 99.28041 39970 ft 504 kts 123°
2026-05-07 05:52 50.39624 99.37245 39974 ft 505 kts 123°
2026-05-07 05:53 50.35802 99.46487 39973 ft 505 kts 123°
2026-05-07 05:53 50.31965 99.55735 39971 ft 505 kts 123°
2026-05-07 05:54 50.28149 99.64901 39971 ft 505 kts 123°
2026-05-07 05:54 50.24299 99.74120 39969 ft 506 kts 123°
2026-05-07 05:55 50.20441 99.83323 39965 ft 506 kts 123°
2026-05-07 05:55 50.16569 99.92501 39959 ft 506 kts 124°
2026-05-07 05:56 50.12626 100.01501 39959 ft 505 kts 125°
2026-05-07 05:56 50.08625 100.10521 39961 ft 505 kts 125°
2026-05-07 05:57 50.04652 100.19491 39954 ft 504 kts 125°
2026-05-07 05:57 50.00657 100.28514 39962 ft 504 kts 125°
2026-05-07 05:58 49.96722 100.37499 39964 ft 505 kts 124°
2026-05-07 05:58 49.92831 100.46570 39961 ft 504 kts 124°
2026-05-07 05:59 49.88930 100.55632 39963 ft 505 kts 124°
2026-05-07 05:59 49.85003 100.64689 39966 ft 505 kts 124°
2026-05-07 06:00 49.81096 100.73654 39960 ft 505 kts 124°
2026-05-07 06:00 49.77152 100.82668 39961 ft 505 kts 124°
2026-05-07 06:01 49.73201 100.91664 39954 ft 505 kts 124°
2026-05-07 06:01 49.69271 101.00588 39956 ft 505 kts 124°
2026-05-07 06:02 49.65307 101.09559 39948 ft 505 kts 124°
2026-05-07 06:02 49.61327 101.18536 39948 ft 505 kts 125°
2026-05-07 06:03 49.57377 101.27417 39944 ft 505 kts 125°
2026-05-07 06:03 49.53386 101.36355 39946 ft 506 kts 125°
2026-05-07 06:04 49.49387 101.45284 39946 ft 506 kts 125°
2026-05-07 06:04 49.45372 101.54221 39944 ft 507 kts 125°
2026-05-07 06:05 49.41374 101.63090 39943 ft 507 kts 125°
2026-05-07 06:05 49.37343 101.71996 39939 ft 507 kts 125°
2026-05-07 06:06 49.33324 101.80852 39946 ft 507 kts 125°
2026-05-07 06:06 49.29281 101.89733 39947 ft 507 kts 125°
2026-05-07 06:07 49.25256 101.98544 39941 ft 507 kts 125°
2026-05-07 06:07 49.21190 102.07411 39948 ft 507 kts 125°
2026-05-07 06:08 49.17088 102.16214 39945 ft 508 kts 127°
2026-05-07 06:08 49.12890 102.24829 39944 ft 508 kts 127°
2026-05-07 06:09 49.08641 102.33493 39945 ft 508 kts 127°
2026-05-07 06:09 49.04433 102.42101 39952 ft 508 kts 127°
2026-05-07 06:10 49.00206 102.50753 39954 ft 508 kts 127°
2026-05-07 06:10 48.96000 102.59340 39957 ft 508 kts 127°
2026-05-07 06:11 48.91750 102.67985 39962 ft 509 kts 127°
2026-05-07 06:11 48.87500 102.76601 39962 ft 509 kts 127°
2026-05-07 06:12 48.83262 102.85165 39962 ft 510 kts 127°
2026-05-07 06:12 48.78985 102.93781 39963 ft 510 kts 127°
2026-05-07 06:13 48.74724 103.02335 39960 ft 510 kts 127°
2026-05-07 06:13 48.70428 103.10935 39951 ft 511 kts 127°
2026-05-07 06:14 48.66132 103.19509 39955 ft 511 kts 127°
2026-05-07 06:14 48.61850 103.28025 39947 ft 511 kts 127°
2026-05-07 06:15 48.57536 103.36585 39950 ft 511 kts 127°
2026-05-07 06:15 48.53437 103.45289 39949 ft 511 kts 124°
2026-05-07 06:16 48.49416 103.54169 39945 ft 511 kts 124°
2026-05-07 06:16 48.46053 103.61517 39952 ft 511 kts 124°
2026-05-07 06:17 48.41305 103.71743 39942 ft 511 kts 124°
2026-05-07 06:17 48.37219 103.80475 39943 ft 511 kts 124°
2026-05-07 06:18 48.33804 103.87753 39934 ft 511 kts 124°
2026-05-07 06:18 48.29687 103.96506 39936 ft 511 kts 124°
2026-05-07 06:19 48.25570 104.05231 39938 ft 511 kts 124°
2026-05-07 06:19 48.21465 104.13903 39935 ft 512 kts 124°
2026-05-07 06:20 48.17325 104.22625 39944 ft 512 kts 125°
2026-05-07 06:20 48.13210 104.31263 39948 ft 512 kts 125°
2026-05-07 06:21 48.09058 104.39952 39951 ft 512 kts 125°
2026-05-07 06:21 48.04900 104.48624 39959 ft 513 kts 125°
2026-05-07 06:22 48.00737 104.57283 39969 ft 513 kts 125°
2026-05-07 06:22 47.94489 104.70222 39976 ft 513 kts 125°
2026-05-07 06:23 47.90299 104.78865 39975 ft 513 kts 125°
2026-05-07 06:23 47.86137 104.87424 39985 ft 513 kts 125°
2026-05-07 06:24 47.81937 104.96036 39988 ft 513 kts 125°
2026-05-07 06:24 47.77715 105.04620 39994 ft 514 kts 126°
2026-05-07 06:25 47.73360 105.13059 39997 ft 514 kts 127°
2026-05-07 06:25 47.68993 105.21421 39996 ft 514 kts 127°
2026-05-07 06:26 47.64615 105.29838 40004 ft 515 kts 127°
2026-05-07 06:26 47.60270 105.38205 40008 ft 515 kts 127°
2026-05-07 06:27 47.55888 105.46624 40012 ft 515 kts 127°
2026-05-07 06:27 47.51507 105.55044 40021 ft 516 kts 127°
2026-05-07 06:28 47.47159 105.63415 40021 ft 516 kts 127°
2026-05-07 06:28 47.42769 105.71843 40022 ft 516 kts 127°
2026-05-07 06:29 47.38376 105.80241 40026 ft 516 kts 127°
2026-05-07 06:29 47.33999 105.88582 40029 ft 517 kts 127°
2026-05-07 06:30 47.29591 105.96957 40032 ft 517 kts 127°
2026-05-07 06:30 47.25169 106.05330 40034 ft 517 kts 127°
2026-05-07 06:31 47.20778 106.13623 40039 ft 517 kts 127°
2026-05-07 06:31 47.16349 106.21960 40037 ft 517 kts 127°
2026-05-07 06:32 47.11908 106.30295 40038 ft 517 kts 127°
2026-05-07 06:32 47.07465 106.38608 40040 ft 517 kts 127°
2026-05-07 06:33 47.03046 106.46854 40040 ft 517 kts 127°
2026-05-07 06:33 46.98575 106.55169 40046 ft 517 kts 127°
2026-05-07 06:34 46.94139 106.63396 40049 ft 517 kts 127°
2026-05-07 06:34 46.89663 106.71670 40050 ft 517 kts 127°
2026-05-07 06:35 46.85214 106.79872 40052 ft 517 kts 127°
2026-05-07 06:35 46.80708 106.88092 40049 ft 517 kts 128°
2026-05-07 06:36 46.76088 106.96152 40048 ft 517 kts 129°
2026-05-07 06:36 46.71468 107.04137 40049 ft 517 kts 129°
2026-05-07 06:37 46.66867 107.12204 40052 ft 517 kts 128°
2026-05-07 06:37 46.62353 107.20374 40051 ft 517 kts 127°
2026-05-07 06:38 46.57878 107.28476 40050 ft 517 kts 127°
2026-05-07 06:38 46.53347 107.36617 40049 ft 517 kts 128°
2026-05-07 06:39 46.48809 107.44724 40051 ft 516 kts 128°
2026-05-07 06:39 46.44296 107.52757 40052 ft 516 kts 128°
2026-05-07 06:40 46.39755 107.60820 40051 ft 516 kts 128°
2026-05-07 06:40 46.35208 107.68870 40052 ft 515 kts 128°
2026-05-07 06:41 46.30683 107.76859 40053 ft 515 kts 128°
2026-05-07 06:41 46.26129 107.84876 40052 ft 515 kts 128°
2026-05-07 06:42 46.21570 107.92878 40056 ft 515 kts 128°
2026-05-07 06:42 46.17009 108.00860 40054 ft 515 kts 128°
2026-05-07 06:43 46.12470 108.08783 40053 ft 515 kts 128°
2026-05-07 06:43 46.07900 108.16736 40056 ft 515 kts 128°
2026-05-07 06:44 46.03341 108.24648 40056 ft 515 kts 128°
2026-05-07 06:44 45.98742 108.32605 40055 ft 515 kts 128°
2026-05-07 06:45 45.94148 108.40533 40054 ft 516 kts 128°
2026-05-07 06:45 45.89583 108.48386 40056 ft 516 kts 129°
2026-05-07 06:46 45.84966 108.56307 40057 ft 516 kts 129°
2026-05-07 06:46 45.80348 108.64209 40058 ft 516 kts 129°
2026-05-07 06:47 45.75750 108.72053 40056 ft 516 kts 129°
2026-05-07 06:47 45.71110 108.79933 40059 ft 516 kts 129°
2026-05-07 06:48 45.66455 108.87749 40057 ft 516 kts 129°
2026-05-07 06:48 45.61818 108.95510 40059 ft 516 kts 129°
2026-05-07 06:49 45.57145 109.03323 40065 ft 517 kts 129°
2026-05-07 06:49 45.52473 109.11119 40064 ft 517 kts 129°
2026-05-07 06:50 45.47785 109.18921 40070 ft 517 kts 129°
2026-05-07 06:50 45.43123 109.26659 40068 ft 517 kts 130°
2026-05-07 06:51 45.38413 109.34453 40068 ft 518 kts 130°
2026-05-07 06:51 45.33706 109.42219 40073 ft 518 kts 130°
2026-05-07 06:52 45.29019 109.49932 40076 ft 518 kts 130°
2026-05-07 06:52 45.24301 109.57675 40079 ft 518 kts 130°
2026-05-07 06:53 45.19573 109.65412 40079 ft 519 kts 130°
2026-05-07 06:53 45.14853 109.73115 40078 ft 519 kts 130°
2026-05-07 06:54 45.10104 109.80844 40082 ft 519 kts 130°
2026-05-07 06:54 45.05376 109.88517 40082 ft 520 kts 130°
2026-05-07 06:55 45.00612 109.96227 40083 ft 520 kts 130°
2026-05-07 06:55 44.95836 110.03937 40089 ft 520 kts 130°
2026-05-07 06:56 44.91056 110.11633 40088 ft 521 kts 130°
2026-05-07 06:56 44.86233 110.19207 40093 ft 521 kts 133°
2026-05-07 06:57 44.81208 110.26622 40097 ft 522 kts 133°
2026-05-07 06:57 44.76205 110.33965 40095 ft 522 kts 133°
2026-05-07 06:58 44.71189 110.41383 40102 ft 522 kts 133°
2026-05-07 06:58 44.66187 110.48797 40107 ft 522 kts 133°
2026-05-07 06:59 44.61171 110.56218 40109 ft 523 kts 133°
2026-05-07 06:59 44.56178 110.63582 40110 ft 523 kts 133°
2026-05-07 07:00 44.51156 110.70967 40116 ft 523 kts 133°
2026-05-07 07:00 44.46140 110.78322 40119 ft 523 kts 133°
2026-05-07 07:01 44.41103 110.85691 40118 ft 523 kts 133°
2026-05-07 07:01 44.36063 110.93042 40117 ft 523 kts 134°
2026-05-07 07:02 44.31015 111.00386 40120 ft 524 kts 134°
2026-05-07 07:02 44.25993 111.07673 40123 ft 524 kts 134°
2026-05-07 07:03 44.20930 111.15000 40119 ft 524 kts 134°
2026-05-07 07:03 44.15860 111.22317 40122 ft 524 kts 134°
2026-05-07 07:04 44.10776 111.29637 40124 ft 525 kts 134°
2026-05-07 07:04 44.05728 111.36885 40117 ft 525 kts 134°
2026-05-07 07:05 44.00633 111.44180 40122 ft 525 kts 134°
2026-05-07 07:05 43.96394 111.50236 40118 ft 525 kts 134°
2026-05-07 07:06 43.91318 111.57470 40120 ft 525 kts 134°
2026-05-07 07:06 43.86214 111.64726 40123 ft 525 kts 134°
2026-05-07 07:07 43.81090 111.71991 40122 ft 526 kts 134°
2026-05-07 07:07 43.76003 111.79184 40124 ft 526 kts 134°
2026-05-07 07:08 43.70873 111.86419 40124 ft 526 kts 134°
2026-05-07 07:08 43.65196 111.92752 40121 ft 524 kts 147°
2026-05-07 07:09 43.59117 111.98199 40127 ft 524 kts 149°
2026-05-07 07:09 43.52941 112.03546 40132 ft 524 kts 149°
2026-05-07 07:10 43.46752 112.08906 40130 ft 524 kts 149°
2026-05-07 07:10 43.40473 112.14005 40142 ft 522 kts 156°
2026-05-07 07:11 43.33903 112.18312 40136 ft 522 kts 158°
2026-05-07 07:11 43.27329 112.22447 40140 ft 522 kts 158°
2026-05-07 07:12 43.20703 112.26595 40141 ft 522 kts 158°
2026-05-07 07:12 43.14117 112.30728 40144 ft 523 kts 158°
2026-05-07 07:13 43.07492 112.34887 40142 ft 523 kts 158°
2026-05-07 07:13 43.00912 112.39010 40144 ft 523 kts 158°
2026-05-07 07:14 42.94294 112.43167 40145 ft 524 kts 158°
2026-05-07 07:14 42.87752 112.47527 40149 ft 524 kts 156°
2026-05-07 07:15 42.81216 112.51953 40153 ft 524 kts 156°
2026-05-07 07:15 42.74674 112.56339 40155 ft 524 kts 157°
2026-05-07 07:16 42.68108 112.60702 40156 ft 524 kts 157°
2026-05-07 07:16 42.61548 112.65045 40159 ft 525 kts 157°
2026-05-07 07:17 42.54999 112.69370 40161 ft 525 kts 157°
2026-05-07 07:17 42.48463 112.73678 40164 ft 525 kts 158°
2026-05-07 07:18 42.41882 112.78006 40163 ft 525 kts 158°
2026-05-07 07:18 42.35301 112.82323 40166 ft 525 kts 158°
2026-05-07 07:19 42.28712 112.86635 40168 ft 525 kts 158°
2026-05-07 07:19 42.22187 112.90897 40171 ft 526 kts 158°
2026-05-07 07:20 42.15597 112.95191 40169 ft 526 kts 158°
2026-05-07 07:20 42.08974 112.99494 40173 ft 531 kts 158°
2026-05-07 07:21 42.02250 113.03850 40172 ft 540 kts 158°
2026-05-07 07:21 41.95484 113.08228 40168 ft 542 kts 158°
2026-05-07 07:22 41.88668 113.12621 40166 ft 541 kts 159°
2026-05-07 07:22 41.85200 113.14311 40169 ft 533 kts 171°
2026-05-07 07:22 41.81562 113.15100 40177 ft 524 kts 181°
2026-05-07 07:23 41.74331 113.15642 40168 ft 522 kts 184°
2026-05-07 07:23 41.67056 113.15890 40167 ft 522 kts 185°
2026-05-07 07:24 41.59790 113.16145 40168 ft 522 kts 185°
2026-05-07 07:24 41.52558 113.16446 40165 ft 522 kts 184°
2026-05-07 07:25 41.41647 113.16936 40167 ft 522 kts 184°
2026-05-07 07:26 41.34364 113.17261 40161 ft 522 kts 185°
2026-05-07 07:26 41.27135 113.17580 40164 ft 522 kts 185°
2026-05-07 07:27 41.19856 113.17901 40165 ft 522 kts 185°
2026-05-07 07:27 41.12580 113.18221 40161 ft 522 kts 185°
2026-05-07 07:28 41.05355 113.18540 40163 ft 522 kts 185°
2026-05-07 07:28 40.98087 113.18859 40161 ft 522 kts 185°
2026-05-07 07:29 40.90823 113.19177 40159 ft 521 kts 185°
2026-05-07 07:29 40.83601 113.19492 40155 ft 521 kts 185°
2026-05-07 07:30 40.76335 113.19809 40156 ft 521 kts 185°
2026-05-07 07:30 40.69107 113.20124 40159 ft 520 kts 185°
2026-05-07 07:31 40.61908 113.20437 40158 ft 520 kts 185°
2026-05-07 07:31 40.54672 113.20750 40154 ft 519 kts 185°
2026-05-07 07:32 40.47440 113.21062 40158 ft 519 kts 185°
2026-05-07 07:32 40.40224 113.22350 40161 ft 533 kts 169°
2026-05-07 07:32 40.36785 113.24105 40162 ft 542 kts 158°
2026-05-07 07:33 40.33543 113.26749 40158 ft 550 kts 146°
2026-05-07 07:33 40.30718 113.30143 39839 ft 550 kts 134°
2026-05-07 07:33 40.28459 113.34147 39209 ft 555 kts 121°
2026-05-07 07:33 40.26817 113.38739 38486 ft 557 kts 108°
2026-05-07 07:34 40.25887 113.43616 37698 ft 557 kts 96°
2026-05-07 07:34 40.25668 113.48638 36938 ft 553 kts 83°
2026-05-07 07:34 40.26152 113.53560 36205 ft 546 kts 71°
2026-05-07 07:34 40.27275 113.58187 35529 ft 537 kts 61°
2026-05-07 07:35 40.28595 113.62560 34850 ft 539 kts 64°
2026-05-07 07:35 40.29701 113.67411 34109 ft 548 kts 72°
2026-05-07 07:35 40.30222 113.72339 33338 ft 556 kts 83°
2026-05-07 07:35 40.30244 113.77364 32730 ft 555 kts 88°
2026-05-07 07:36 40.30057 113.82381 32105 ft 554 kts 90°
2026-05-07 07:36 40.29757 113.87413 31464 ft 551 kts 91°
2026-05-07 07:36 40.29423 113.92252 30823 ft 549 kts 91°
2026-05-07 07:36 40.29073 113.97245 30189 ft 545 kts 91°
2026-05-07 07:37 40.28736 114.02173 29434 ft 541 kts 91°
2026-05-07 07:37 40.28415 114.07074 28781 ft 536 kts 90°
2026-05-07 07:37 40.28121 114.11813 28161 ft 530 kts 90°
2026-05-07 07:37 40.27875 114.16609 27588 ft 523 kts 89°
2026-05-07 07:38 40.27665 114.21301 27043 ft 517 kts 89°
2026-05-07 07:38 40.27464 114.25937 26509 ft 511 kts 89°
2026-05-07 07:38 40.27262 114.30565 25977 ft 505 kts 89°
2026-05-07 07:38 40.27058 114.35048 25457 ft 499 kts 89°
2026-05-07 07:39 40.26847 114.39560 24921 ft 494 kts 89°
2026-05-07 07:39 40.26633 114.44013 24418 ft 488 kts 89°
2026-05-07 07:39 40.26417 114.48439 23889 ft 483 kts 89°
2026-05-07 07:39 40.26200 114.52752 23307 ft 478 kts 89°
2026-05-07 07:40 40.25983 114.57059 22679 ft 472 kts 89°
2026-05-07 07:40 40.25766 114.61333 22078 ft 466 kts 89°
2026-05-07 07:40 40.25554 114.65495 21470 ft 461 kts 89°
2026-05-07 07:40 40.25348 114.69530 20913 ft 456 kts 89°
2026-05-07 07:41 40.25131 114.73729 20365 ft 450 kts 89°
2026-05-07 07:41 40.24923 114.77744 19933 ft 446 kts 90°
2026-05-07 07:41 40.24714 114.81776 19505 ft 441 kts 89°
2026-05-07 07:41 40.24518 114.85561 19281 ft 441 kts 89°
2026-05-07 07:42 40.24303 114.89633 19024 ft 441 kts 90°
2026-05-07 07:42 40.24107 114.93228 18807 ft 439 kts 90°
2026-05-07 07:42 40.23894 114.97211 18564 ft 437 kts 89°
2026-05-07 07:42 40.23682 115.01169 18312 ft 435 kts 89°
2026-05-07 07:43 40.23467 115.05123 18042 ft 433 kts 89°
2026-05-07 07:43 40.23259 115.09048 17774 ft 431 kts 89°
2026-05-07 07:43 40.23045 115.12917 17507 ft 430 kts 90°
2026-05-07 07:43 40.22826 115.16816 17240 ft 428 kts 90°
2026-05-07 07:44 40.22610 115.20669 16974 ft 426 kts 90°
2026-05-07 07:44 40.22395 115.24523 16716 ft 424 kts 90°
2026-05-07 07:44 40.22178 115.28362 16444 ft 422 kts 90°
2026-05-07 07:44 40.21927 115.32191 16192 ft 421 kts 91°
2026-05-07 07:45 40.21587 115.36009 15934 ft 421 kts 93°
2026-05-07 07:45 40.21143 115.39744 15684 ft 421 kts 96°
2026-05-07 07:45 40.20574 115.43493 15430 ft 420 kts 98°
2026-05-07 07:45 40.19882 115.47201 15188 ft 420 kts 101°
2026-05-07 07:46 40.19070 115.50846 14933 ft 419 kts 104°
2026-05-07 07:46 40.18194 115.54248 14701 ft 418 kts 106°
2026-05-07 07:46 40.17130 115.57866 14461 ft 418 kts 109°
2026-05-07 07:46 40.15988 115.61319 14214 ft 418 kts 111°
2026-05-07 07:47 40.14752 115.64659 13975 ft 417 kts 114°
2026-05-07 07:47 40.13420 115.67905 13719 ft 417 kts 116°
2026-05-07 07:47 40.11908 115.71255 13296 ft 410 kts 118°
2026-05-07 07:47 40.10380 115.74334 12751 ft 405 kts 121°
2026-05-07 07:48 40.08769 115.77310 12179 ft 400 kts 124°
2026-05-07 07:48 40.07070 115.80184 11610 ft 397 kts 127°
2026-05-07 07:48 40.05341 115.82873 11319 ft 386 kts 129°
2026-05-07 07:48 40.03567 115.85411 11182 ft 372 kts 131°
2026-05-07 07:49 40.01784 115.87779 11016 ft 358 kts 134°
2026-05-07 07:49 40.00025 115.89964 10857 ft 346 kts 136°
2026-05-07 07:49 39.98285 115.91978 10512 ft 324 kts 138°
2026-05-07 07:49 39.96602 115.93798 9941 ft 314 kts 140°
2026-05-07 07:50 39.94926 115.95502 9291 ft 306 kts 142°
2026-05-07 07:50 39.93248 115.97103 8585 ft 302 kts 144°
2026-05-07 07:50 39.91524 115.98648 7881 ft 300 kts 146°
2026-05-07 07:50 39.89780 116.00125 7185 ft 297 kts 147°
2026-05-07 07:51 39.88043 116.01490 6504 ft 294 kts 149°
2026-05-07 07:51 39.86285 116.02757 5868 ft 290 kts 152°
2026-05-07 07:51 39.84509 116.03957 5288 ft 286 kts 153°
2026-05-07 07:51 39.82728 116.05093 5020 ft 288 kts 154°
2026-05-07 07:52 39.80937 116.06159 4978 ft 289 kts 156°
2026-05-07 07:52 39.79087 116.07176 4974 ft 287 kts 158°
2026-05-07 07:52 39.77240 116.08119 4728 ft 288 kts 159°
2026-05-07 07:52 39.75382 116.09061 4261 ft 284 kts 159°
2026-05-07 07:53 39.73592 116.09985 3625 ft 280 kts 158°
2026-05-07 07:53 39.71808 116.10951 3143 ft 277 kts 156°
2026-05-07 07:53 39.70054 116.11968 2996 ft 275 kts 154°
2026-05-07 07:53 39.68418 116.13008 2959 ft 251 kts 153°
2026-05-07 07:54 39.66971 116.13988 2968 ft 229 kts 151°
2026-05-07 07:54 39.65634 116.14965 2998 ft 222 kts 149°
2026-05-07 07:54 39.64310 116.15995 3003 ft 223 kts 148°
2026-05-07 07:54 39.63001 116.17073 2981 ft 218 kts 147°
2026-05-07 07:55 39.61792 116.18111 2988 ft 202 kts 145°
2026-05-07 07:55 39.61022 116.18788 2999 ft 202 kts 145°
2026-05-07 07:55 39.59915 116.19794 2982 ft 201 kts 143°
2026-05-07 07:55 39.58758 116.20910 2978 ft 200 kts 142°
2026-05-07 07:56 39.57666 116.21997 3000 ft 200 kts 142°
2026-05-07 07:56 39.56583 116.23114 2984 ft 200 kts 141°
2026-05-07 07:56 39.55513 116.24255 3004 ft 203 kts 139°
2026-05-07 07:56 39.54462 116.25441 3006 ft 202 kts 138°
2026-05-07 07:57 39.53405 116.26640 2987 ft 201 kts 137°
2026-05-07 07:57 39.52365 116.27814 3010 ft 203 kts 138°
2026-05-07 07:57 39.51306 116.29005 2993 ft 201 kts 137°
2026-05-07 07:57 39.50287 116.30165 2990 ft 192 kts 138°
2026-05-07 07:58 39.49289 116.31267 3009 ft 189 kts 138°
2026-05-07 07:58 39.48302 116.32364 2983 ft 184 kts 139°
2026-05-07 07:58 39.47354 116.33409 2988 ft 179 kts 137°
2026-05-07 07:58 39.46415 116.34468 3006 ft 182 kts 139°
2026-05-07 07:59 39.45463 116.35524 2991 ft 181 kts 139°
2026-05-07 07:59 39.44518 116.36565 2993 ft 180 kts 139°
2026-05-07 07:59 39.43600 116.37588 2987 ft 171 kts 139°
2026-05-07 07:59 39.42730 116.38556 2831 ft 161 kts 138°
2026-05-07 08:00 39.41946 116.39573 2366 ft 167 kts 123°
2026-05-07 08:00 39.41736 116.40994 2027 ft 153 kts 70°
2026-05-07 08:00 39.42280 116.41984 1999 ft 136 kts 32°
2026-05-07 08:00 39.43171 116.42353 1995 ft 134 kts 356°
2026-05-07 08:01 39.44011 116.41977 1876 ft 131 kts 325°
2026-05-07 08:01 39.44751 116.41239 1517 ft 132 kts 322°
2026-05-07 08:01 39.45515 116.40624 1142 ft 138 kts 339°
2026-05-07 08:01 39.46499 116.40495 741 ft 144 kts 355°
2026-05-07 08:02 39.47488 116.40268 386 ft 143 kts 347°
2026-05-07 08:02 39.48459 116.40136 145 ft 136 kts 351°
2026-05-07 08:02 39.49307 116.40002 103 ft 98 kts 353°
2026-05-07 08:02 39.49604 116.39958 101 ft 12 kts 354°
2026-05-07 08:03 39.49749 116.39938 101 ft 31 kts 354°
2026-05-07 08:03 39.49947 116.39909 104 ft 30 kts 356°
2026-05-07 08:03 39.50146 116.39950 104 ft 29 kts 19°
2026-05-07 08:03 39.50246 116.39999 100 ft 2 kts 21°
2026-05-07 08:04 39.50334 116.40037 97 ft 37 kts 15°
2026-05-07 08:04 39.50482 116.40047 94 ft 1 kts 354°
2026-05-07 08:04 39.50510 116.40042 95 ft 16 kts 352°
2026-05-07 08:04 39.50622 116.40059 94 ft 10 kts 47°
2026-05-07 08:05 39.50634 116.40128 95 ft 12 kts 81°
2026-05-07 08:05 39.50664 116.40248 94 ft 11 kts 43°
2026-05-07 08:05 39.50696 116.40252 93 ft 3 kts 339°
2026-05-07 08:05 39.50739 116.40233 94 ft 9 kts 346°
2026-05-07 08:06 39.50819 116.40221 92 ft 11 kts 15°
2026-05-07 08:06 39.50857 116.40285 94 ft 10 kts 70°
2026-05-07 08:06 39.50868 116.40341 93 ft 0 kts 77°
2026-05-07 08:07 39.50868 116.40342 93 ft 1 kts 77°
2026-05-07 08:07 39.50890 116.40465 93 ft 21 kts 71°
2026-05-07 08:07 39.50910 116.40521 94 ft 3 kts 60°
2026-05-07 08:07 39.50958 116.40586 93 ft 12 kts 65°
2026-05-07 08:08 39.50951 116.40685 92 ft 4 kts 111°
2026-05-07 08:08 39.50940 116.40717 94 ft 3 kts 115°
2026-05-07 08:08 39.50931 116.40742 93 ft 8 kts 115°
2026-05-07 08:08 39.50930 116.40746 95 ft 1 kts 115°
2026-05-07 08:09 39.50921 116.40771 93 ft 0 kts 116°
2026-05-07 08:10 39.50925 116.40761 94 ft 0 kts 116°